ECMWFFLT1_prec_precacc_162.txt.gz
Total_Precipitation_Accumulation
0.06 0.08 0.08 0.09 0.09 0.08 0.13 0.09 0.11 0.07 0.08 0.10 0.08 0.09 0.08 0.08 0.08 0.08 0.08 0.09 0.09 0.10 0.16 0.18 0.19 0.17 0.16 0.18 0.24 0.24 0.21 0.21 0.20 0.21 0.25 0.26 0.30 0.36 0.35 0.37 0.59 0.58 0.36 0.12 0.04 0.02 0.01 0.01 0.02 0.05 0.09 0.15 0.22 0.24 0.23 0.13 0.11 0.12 0.10 0.13 0.16 0.21 0.22
0.09 0.09 0.09 0.11 0.11 0.10 0.09 0.15 0.12 0.09 0.10 0.10 0.09 0.09 0.10 0.12 0.15 0.11 0.11 0.09 0.10 0.09 0.11 0.16 0.19 0.16 0.15 0.16 0.25 0.28 0.28 0.26 0.23 0.26 0.26 0.24 0.27 0.31 0.31 0.28 0.39 0.47 0.38 0.23 0.08 0.03 0.02 0.02 0.01 0.04 0.05 0.10 0.13 0.19 0.24 0.24 0.20 0.16 0.15 0.15 0.17 0.21 0.19
0.12 0.12 0.13 0.13 0.11 0.12 0.14 0.15 0.16 0.13 0.17 0.19 0.17 0.15 0.13 0.13 0.13 0.13 0.13 0.12 0.12 0.12 0.12 0.15 0.19 0.20 0.18 0.18 0.28 0.30 0.32 0.31 0.31 0.29 0.27 0.27 0.21 0.21 0.19 0.22 0.31 0.42 0.40 0.27 0.18 0.07 0.05 0.04 0.03 0.04 0.06 0.08 0.12 0.14 0.13 0.21 0.26 0.24 0.24 0.21 0.21 0.20 0.19
0.10 0.12 0.12 0.14 0.15 0.19 0.14 0.15 0.13 0.16 0.19 0.20 0.18 0.21 0.23 0.19 0.17 0.17 0.18 0.20 0.18 0.17 0.19 0.20 0.22 0.22 0.22 0.25 0.28 0.29 0.30 0.33 0.34 0.35 0.35 0.32 0.26 0.25 0.19 0.15 0.17 0.25 0.34 0.28 0.25 0.15 0.10 0.06 0.06 0.05 0.06 0.06 0.08 0.13 0.18 0.19 0.27 0.28 0.28 0.25 0.27 0.21 0.22
0.11 0.13 0.14 0.14 0.12 0.12 0.11 0.12 0.12 0.13 0.14 0.14 0.16 0.19 0.20 0.21 0.22 0.22 0.22 0.22 0.24 0.28 0.29 0.28 0.27 0.26 0.24 0.26 0.34 0.35 0.37 0.37 0.39 0.42 0.43 0.43 0.37 0.35 0.30 0.26 0.25 0.26 0.28 0.39 0.34 0.24 0.13 0.08 0.08 0.08 0.08 0.08 0.11 0.13 0.18 0.22 0.27 0.31 0.34 0.33 0.28 0.24 0.20
0.15 0.15 0.14 0.14 0.14 0.13 0.16 0.13 0.14 0.14 0.17 0.14 0.12 0.13 0.14 0.15 0.16 0.17 0.19 0.21 0.23 0.24 0.28 0.31 0.31 0.29 0.30 0.31 0.36 0.38 0.36 0.41 0.48 0.51 0.49 0.48 0.51 0.52 0.47 0.46 0.44 0.41 0.43 0.44 0.41 0.33 0.24 0.15 0.13 0.13 0.13 0.12 0.12 0.14 0.17 0.26 0.29 0.28 0.34 0.38 0.39 0.38 0.31
0.16 0.16 0.16 0.15 0.15 0.15 0.15 0.15 0.14 0.14 0.13 0.13 0.13 0.15 0.15 0.15 0.15 0.15 0.15 0.17 0.18 0.18 0.21 0.24 0.26 0.27 0.27 0.31 0.34 0.36 0.35 0.35 0.37 0.47 0.52 0.53 0.55 0.53 0.58 0.70 0.72 0.65 0.58 0.56 0.55 0.53 0.36 0.29 0.26 0.18 0.20 0.13 0.11 0.13 0.14 0.18 0.25 0.33 0.31 0.33 0.34 0.37 0.35
0.19 0.17 0.17 0.18 0.18 0.17 0.16 0.16 0.16 0.15 0.15 0.14 0.14 0.15 0.17 0.16 0.19 0.21 0.20 0.19 0.17 0.17 0.19 0.19 0.20 0.21 0.21 0.22 0.24 0.26 0.27 0.29 0.36 0.41 0.48 0.48 0.50 0.56 0.69 0.76 0.77 0.74 0.74 0.74 0.70 0.61 0.52 0.41 0.33 0.26 0.21 0.21 0.22 0.23 0.24 0.20 0.22 0.27 0.28 0.32 0.35 0.34 0.34
0.22 0.22 0.23 0.20 0.20 0.21 0.18 0.20 0.19 0.17 0.18 0.19 0.19 0.21 0.26 0.25 0.28 0.27 0.27 0.25 0.23 0.22 0.20 0.19 0.19 0.18 0.22 0.19 0.19 0.20 0.22 0.23 0.28 0.37 0.46 0.46 0.48 0.57 0.66 0.71 0.71 0.75 0.78 0.78 0.73 0.67 0.51 0.46 0.38 0.32 0.28 0.26 0.27 0.30 0.28 0.22 0.20 0.25 0.24 0.25 0.27 0.31 0.34
0.24 0.27 0.36 0.25 0.23 0.23 0.25 0.23 0.22 0.20 0.21 0.27 0.38 0.46 0.49 0.51 0.48 0.44 0.42 0.39 0.35 0.30 0.25 0.23 0.21 0.18 0.16 0.17 0.18 0.21 0.23 0.26 0.30 0.32 0.39 0.47 0.50 0.55 0.66 0.73 0.78 0.77 0.71 0.72 0.77 0.67 0.55 0.54 0.44 0.34 0.27 0.25 0.21 0.17 0.14 0.15 0.18 0.21 0.20 0.19 0.26 0.28 0.33
0.34 0.33 0.32 0.31 0.32 0.35 0.33 0.31 0.26 0.24 0.33 0.54 0.74 0.75 0.78 0.70 0.60 0.51 0.48 0.44 0.40 0.35 0.28 0.23 0.20 0.20 0.19 0.19 0.20 0.22 0.25 0.29 0.30 0.37 0.42 0.41 0.42 0.53 0.66 0.81 0.86 0.79 0.68 0.70 0.68 0.61 0.51 0.47 0.40 0.30 0.27 0.25 0.21 0.17 0.16 0.18 0.19 0.23 0.24 0.28 0.31 0.37 0.33
0.41 0.33 0.32 0.33 0.34 0.36 0.35 0.36 0.30 0.35 0.56 0.71 0.95 1.20 1.06 0.90 0.76 0.63 0.54 0.48 0.44 0.38 0.33 0.28 0.25 0.23 0.21 0.22 0.21 0.21 0.22 0.24 0.29 0.35 0.37 0.43 0.50 0.59 0.74 0.88 0.84 0.87 0.82 0.70 0.71 0.68 0.58 0.53 0.42 0.28 0.23 0.22 0.23 0.25 0.21 0.22 0.24 0.30 0.34 0.35 0.34 0.30 0.29
0.38 0.38 0.39 0.40 0.45 0.40 0.38 0.38 0.34 0.44 0.66 0.79 1.09 1.38 1.45 1.11 0.87 0.71 0.55 0.44 0.38 0.34 0.31 0.28 0.30 0.28 0.26 0.22 0.20 0.24 0.25 0.27 0.29 0.32 0.37 0.43 0.47 0.52 0.68 0.91 1.16 1.02 0.83 0.89 0.86 0.83 0.67 0.49 0.43 0.43 0.30 0.20 0.22 0.28 0.34 0.31 0.34 0.38 0.39 0.39 0.36 0.30 0.24
0.45 0.45 0.50 0.50 0.52 0.49 0.48 0.45 0.43 0.50 0.79 1.04 1.25 1.58 1.71 1.19 0.96 0.77 0.62 0.49 0.42 0.37 0.34 0.32 0.34 0.36 0.33 0.27 0.25 0.27 0.28 0.29 0.31 0.32 0.35 0.40 0.46 0.49 0.49 0.61 0.68 0.69 0.65 0.72 0.85 0.94 0.84 0.53 0.47 0.38 0.34 0.47 0.38 0.40 0.47 0.46 0.46 0.46 0.46 0.47 0.44 0.32 0.28
0.51 0.52 0.55 0.56 0.65 0.62 0.60 0.51 0.49 0.69 1.00 1.15 1.34 1.61 2.01 1.40 1.18 0.93 0.70 0.55 0.47 0.44 0.40 0.36 0.34 0.33 0.31 0.28 0.28 0.28 0.29 0.31 0.34 0.35 0.39 0.39 0.38 0.36 0.35 0.33 0.34 0.41 0.54 0.61 0.56 0.61 0.63 0.52 0.41 0.36 0.31 0.30 0.37 0.53 0.56 0.51 0.50 0.46 0.49 0.52 0.49 0.49 0.45
0.43 0.44 0.45 0.45 0.49 0.55 0.54 0.42 0.48 0.74 1.01 1.17 1.42 1.85 1.66 1.50 1.15 0.91 0.74 0.59 0.51 0.46 0.41 0.37 0.38 0.40 0.38 0.33 0.30 0.29 0.48 0.41 0.40 0.47 0.50 0.46 0.37 0.32 0.28 0.27 0.25 0.39 0.47 0.38 0.49 0.53 0.50 0.47 0.42 0.51 0.47 0.48 0.49 0.47 0.49 0.57 0.63 0.67 0.77 0.85 0.87 0.72 0.47
0.32 0.34 0.39 0.40 0.41 0.44 0.40 0.38 0.42 0.60 0.91 1.05 1.33 1.96 1.95 1.61 1.16 0.87 0.70 0.56 0.49 0.46 0.42 0.38 0.38 0.39 0.41 0.36 0.32 0.32 0.57 0.69 0.72 0.70 0.67 0.62 0.51 0.40 0.34 0.29 0.21 0.41 0.80 1.17 1.41 1.55 1.25 1.08 1.10 1.20 1.40 1.38 1.35 0.93 0.92 1.02 1.14 1.03 0.77 0.80 0.84 0.61 0.38
0.34 0.34 0.36 0.40 0.41 0.41 0.43 0.38 0.36 0.50 0.72 0.92 1.23 1.59 1.50 1.37 1.20 0.88 0.71 0.61 0.53 0.50 0.47 0.39 0.42 0.40 0.40 0.40 0.33 0.48 0.71 0.92 0.91 1.07 0.85 0.69 0.62 0.54 0.46 0.32 0.20 0.18 0.23 0.65 1.16 1.46 1.52 1.66 1.44 1.36 1.37 1.58 1.53 1.42 0.92 1.09 1.31 0.92 0.59 0.65 0.62 0.57 0.35
0.34 0.33 0.34 0.36 0.38 0.40 0.44 0.42 0.38 0.42 0.66 0.92 1.27 1.40 1.35 1.25 1.12 0.97 0.79 0.72 0.66 0.55 0.46 0.39 0.35 0.41 0.47 0.42 0.42 0.73 0.92 1.32 1.08 1.09 0.85 0.60 0.60 0.62 0.55 0.37 0.24 0.21 0.22 0.24 0.32 0.41 0.50 0.63 0.82 0.77 0.77 0.65 0.75 0.88 1.02 0.93 0.93 0.76 0.70 0.71 0.59 0.50 0.45
0.29 0.30 0.33 0.35 0.42 0.44 0.43 0.43 0.41 0.44 0.58 0.91 1.19 1.26 1.13 1.02 0.98 0.96 0.87 0.80 0.70 0.69 0.60 0.48 0.43 0.38 0.42 0.69 0.96 0.94 1.28 1.39 1.84 1.21 1.08 0.82 0.79 0.71 0.51 0.28 0.21 0.24 0.27 0.28 0.28 0.28 0.25 0.32 0.37 0.49 0.63 0.64 0.58 0.53 0.60 0.79 0.66 0.68 0.70 0.67 0.59 0.48 0.43
0.31 0.35 0.39 0.38 0.39 0.43 0.44 0.44 0.42 0.37 0.51 0.86 0.97 0.96 1.23 0.98 0.92 0.80 0.78 0.78 0.76 0.65 0.56 0.51 0.45 0.41 0.38 0.47 0.73 0.96 1.23 1.40 1.70 1.55 1.10 1.08 0.96 0.64 0.44 0.40 0.46 0.42 0.34 0.36 0.31 0.28 0.27 0.28 0.32 0.43 0.53 0.63 0.57 0.53 0.53 0.65 0.48 0.50 0.46 0.58 0.65 0.59 0.51
0.39 0.38 0.31 0.29 0.33 0.39 0.40 0.38 0.37 0.40 0.46 0.69 0.88 0.99 1.17 1.02 0.89 0.73 0.81 0.85 0.67 0.52 0.45 0.40 0.39 0.40 0.41 0.45 0.66 1.03 1.46 1.47 1.60 1.75 1.24 1.13 1.29 1.30 1.15 0.62 0.53 0.45 0.44 0.39 0.37 0.34 0.32 0.31 0.33 0.35 0.40 0.53 0.56 0.51 0.62 0.54 0.47 0.39 0.34 0.31 0.34 0.43 0.49
0.38 0.34 0.31 0.31 0.35 0.37 0.36 0.35 0.34 0.44 0.39 0.47 0.73 0.88 1.04 1.08 1.04 1.00 0.77 0.74 0.65 0.50 0.41 0.36 0.37 0.37 0.42 0.56 1.00 1.30 1.48 1.52 1.77 1.52 1.39 1.54 1.42 1.38 1.14 1.01 0.93 0.76 0.64 0.53 0.43 0.39 0.42 0.36 0.31 0.34 0.33 0.33 0.42 0.43 0.37 0.42 0.41 0.39 0.36 0.36 0.30 0.27 0.28
0.38 0.30 0.31 0.35 0.36 0.35 0.33 0.32 0.37 0.38 0.33 0.35 0.50 0.76 1.01 1.01 1.01 0.95 0.74 0.67 0.56 0.48 0.44 0.41 0.40 0.46 0.61 0.95 0.98 1.10 1.32 1.55 1.40 1.33 1.49 1.64 1.46 1.04 0.98 1.04 1.10 1.03 0.91 0.72 0.56 0.49 0.40 0.34 0.25 0.25 0.25 0.26 0.23 0.34 0.40 0.40 0.42 0.37 0.36 0.34 0.29 0.24 0.23
0.30 0.32 0.32 0.33 0.34 0.36 0.35 0.35 0.36 0.31 0.31 0.33 0.37 0.49 0.66 0.72 0.81 0.69 0.64 0.59 0.50 0.47 0.47 0.46 0.56 0.69 0.80 0.90 1.01 1.05 0.95 0.97 0.88 0.91 1.11 0.99 1.01 1.05 0.99 1.05 0.96 0.85 0.81 0.87 0.78 0.58 0.40 0.26 0.21 0.20 0.20 0.20 0.24 0.28 0.40 0.46 0.48 0.47 0.38 0.37 0.34 0.31 0.23
0.33 0.31 0.30 0.31 0.31 0.35 0.38 0.40 0.34 0.29 0.31 0.35 0.37 0.40 0.48 0.57 0.52 0.52 0.48 0.53 0.48 0.39 0.36 0.39 0.55 0.44 0.45 0.50 0.58 0.66 0.76 0.96 0.71 0.62 0.61 0.73 0.85 0.83 0.93 0.97 0.87 0.69 0.65 0.64 0.53 0.47 0.42 0.32 0.24 0.25 0.26 0.22 0.24 0.32 0.39 0.46 0.52 0.58 0.53 0.47 0.48 0.45 0.41
0.35 0.36 0.37 0.37 0.36 0.38 0.39 0.40 0.32 0.30 0.33 0.41 0.48 0.49 0.50 0.54 0.50 0.51 0.43 0.42 0.49 0.45 0.39 0.37 0.40 0.40 0.43 0.44 0.47 0.57 0.67 0.61 0.50 0.53 0.71 0.60 0.56 0.76 0.86 1.10 0.78 0.59 0.57 0.48 0.41 0.39 0.33 0.31 0.36 0.31 0.37 0.40 0.36 0.36 0.33 0.35 0.39 0.48 0.49 0.45 0.43 0.40 0.39
0.53 0.57 0.59 0.61 0.52 0.52 0.45 0.38 0.32 0.33 0.43 0.60 0.62 0.63 0.57 0.54 0.52 0.59 0.58 0.43 0.42 0.43 0.39 0.42 0.43 0.47 0.46 0.56 0.61 0.62 0.62 0.58 0.56 0.48 0.43 0.44 0.50 0.57 0.64 0.75 0.74 0.69 0.68 0.53 0.52 0.54 0.44 0.46 0.45 0.49 0.45 0.40 0.37 0.30 0.26 0.29 0.37 0.40 0.48 0.53 0.51 0.61 0.54
0.95 0.87 0.86 0.72 0.69 0.77 0.66 0.53 0.52 0.49 0.56 0.66 0.69 0.71 0.69 0.69 0.64 0.60 0.56 0.44 0.43 0.47 0.47 0.43 0.45 0.45 0.45 0.43 0.44 0.47 0.48 0.45 0.42 0.38 0.39 0.46 0.50 0.46 0.48 0.50 0.64 0.70 0.60 0.48 0.52 0.60 0.58 0.59 0.57 0.49 0.42 0.42 0.42 0.34 0.28 0.29 0.37 0.40 0.42 0.51 0.61 0.66 0.54
1.19 1.15 1.08 0.93 0.71 0.74 0.85 0.78 0.64 0.59 0.81 0.89 0.92 1.05 0.86 0.80 0.88 0.78 0.63 0.52 0.47 0.44 0.45 0.41 0.38 0.37 0.37 0.35 0.33 0.35 0.34 0.33 0.33 0.34 0.34 0.38 0.42 0.41 0.42 0.44 0.49 0.53 0.49 0.45 0.54 0.51 0.55 0.52 0.50 0.44 0.43 0.43 0.42 0.39 0.32 0.30 0.38 0.44 0.47 0.56 0.67 0.66 0.57
1.11 1.16 0.95 0.87 0.93 0.81 0.60 0.56 0.51 0.52 0.79 0.92 1.12 1.12 0.98 1.04 0.93 0.87 0.77 0.63 0.56 0.50 0.43 0.39 0.34 0.34 0.32 0.29 0.28 0.30 0.30 0.30 0.31 0.30 0.29 0.32 0.34 0.35 0.37 0.41 0.43 0.48 0.47 0.47 0.50 0.53 0.58 0.53 0.50 0.45 0.38 0.37 0.34 0.34 0.37 0.43 0.47 0.44 0.51 0.55 0.55 0.55 0.49
0.89 0.97 1.07 0.87 0.92 1.04 0.83 0.68 0.64 0.63 0.91 1.07 1.26 1.24 1.02 0.98 1.02 0.94 0.78 0.62 0.62 0.55 0.44 0.37 0.33 0.33 0.31 0.28 0.28 0.27 0.25 0.28 0.32 0.32 0.32 0.31 0.28 0.26 0.26 0.30 0.37 0.42 0.45 0.47 0.48 0.49 0.53 0.57 0.56 0.52 0.44 0.37 0.33 0.32 0.34 0.41 0.52 0.58 0.68 0.63 0.55 0.49 0.42
0.56 0.63 0.76 0.80 0.96 1.06 1.00 0.76 0.72 0.75 0.94 1.03 1.12 1.03 0.79 0.78 0.77 0.65 0.60 0.50 0.38 0.34 0.37 0.36 0.34 0.33 0.32 0.30 0.29 0.28 0.29 0.31 0.34 0.29 0.28 0.28 0.28 0.26 0.24 0.24 0.25 0.31 0.38 0.42 0.45 0.47 0.49 0.59 0.52 0.56 0.53 0.50 0.42 0.39 0.37 0.33 0.36 0.38 0.42 0.50 0.56 0.51 0.45
0.42 0.39 0.41 0.43 0.57 0.69 0.72 0.61 0.59 0.60 0.62 0.70 0.78 0.77 0.77 0.79 0.69 0.61 0.62 0.44 0.37 0.33 0.32 0.31 0.31 0.32 0.33 0.33 0.33 0.33 0.32 0.33 0.35 0.28 0.26 0.22 0.21 0.22 0.22 0.20 0.22 0.26 0.31 0.34 0.37 0.41 0.40 0.43 0.46 0.53 0.55 0.58 0.51 0.44 0.38 0.38 0.35 0.34 0.40 0.47 0.44 0.41 0.40
0.32 0.29 0.33 0.43 0.45 0.56 0.60 0.51 0.48 0.54 0.64 0.74 0.76 0.74 0.85 0.66 0.59 0.64 0.51 0.37 0.30 0.30 0.30 0.30 0.29 0.29 0.28 0.28 0.28 0.31 0.31 0.31 0.32 0.28 0.26 0.24 0.22 0.19 0.19 0.23 0.22 0.21 0.23 0.25 0.29 0.32 0.35 0.37 0.42 0.46 0.47 0.48 0.48 0.47 0.47 0.42 0.39 0.39 0.37 0.38 0.40 0.36 0.33
0.35 0.31 0.30 0.38 0.38 0.42 0.56 0.56 0.49 0.52 0.68 0.85 0.83 0.82 0.70 0.57 0.48 0.40 0.38 0.33 0.32 0.31 0.32 0.31 0.32 0.32 0.31 0.33 0.34 0.35 0.33 0.32 0.32 0.32 0.31 0.29 0.26 0.24 0.22 0.23 0.24 0.23 0.22 0.21 0.22 0.25 0.28 0.32 0.37 0.41 0.46 0.46 0.43 0.40 0.38 0.35 0.33 0.32 0.34 0.34 0.34 0.37 0.35

ECMWFFLT1_prec_precacc_168.txt.gz
Total_Precipitation_Accumulation
0.07 0.08 0.09 0.10 0.10 0.09 0.15 0.10 0.13 0.08 0.09 0.11 0.09 0.09 0.08 0.08 0.08 0.08 0.08 0.09 0.09 0.10 0.16 0.18 0.19 0.17 0.16 0.18 0.24 0.24 0.21 0.21 0.20 0.21 0.25 0.26 0.30 0.36 0.35 0.38 0.59 0.59 0.37 0.12 0.04 0.02 0.01 0.01 0.02 0.05 0.09 0.15 0.22 0.24 0.23 0.14 0.13 0.14 0.13 0.17 0.22 0.28 0.31
0.09 0.09 0.10 0.11 0.11 0.10 0.10 0.16 0.13 0.10 0.11 0.11 0.10 0.10 0.11 0.13 0.16 0.11 0.12 0.10 0.10 0.09 0.11 0.16 0.19 0.16 0.15 0.16 0.25 0.28 0.28 0.26 0.23 0.26 0.26 0.24 0.27 0.31 0.31 0.28 0.39 0.48 0.38 0.24 0.08 0.03 0.02 0.02 0.01 0.04 0.05 0.10 0.13 0.19 0.25 0.25 0.20 0.17 0.17 0.17 0.21 0.25 0.24
0.12 0.12 0.13 0.13 0.11 0.12 0.14 0.15 0.16 0.13 0.17 0.19 0.18 0.16 0.14 0.14 0.14 0.13 0.13 0.12 0.12 0.12 0.12 0.16 0.19 0.20 0.18 0.18 0.28 0.30 0.32 0.31 0.31 0.29 0.27 0.28 0.21 0.21 0.19 0.22 0.31 0.43 0.41 0.28 0.18 0.07 0.05 0.04 0.03 0.04 0.06 0.08 0.12 0.15 0.13 0.23 0.27 0.26 0.25 0.24 0.24 0.24 0.23
0.10 0.12 0.12 0.14 0.15 0.19 0.14 0.15 0.13 0.16 0.19 0.20 0.18 0.21 0.24 0.20 0.18 0.18 0.19 0.20 0.19 0.17 0.19 0.20 0.22 0.22 0.22 0.25 0.28 0.29 0.30 0.33 0.34 0.35 0.36 0.32 0.27 0.25 0.20 0.15 0.17 0.25 0.35 0.29 0.26 0.15 0.10 0.06 0.06 0.05 0.06 0.06 0.08 0.13 0.19 0.20 0.27 0.29 0.30 0.27 0.30 0.25 0.27
0.11 0.13 0.14 0.14 0.13 0.12 0.11 0.12 0.12 0.13 0.14 0.15 0.16 0.19 0.21 0.22 0.22 0.23 0.23 0.23 0.25 0.28 0.29 0.28 0.28 0.26 0.24 0.26 0.34 0.35 0.37 0.37 0.39 0.42 0.43 0.43 0.37 0.36 0.31 0.27 0.25 0.27 0.28 0.40 0.34 0.25 0.13 0.08 0.08 0.08 0.08 0.08 0.11 0.14 0.19 0.23 0.27 0.31 0.35 0.34 0.33 0.29 0.25
0.15 0.15 0.14 0.14 0.14 0.13 0.16 0.14 0.14 0.14 0.17 0.14 0.13 0.14 0.15 0.17 0.18 0.18 0.20 0.22 0.24 0.24 0.28 0.31 0.31 0.29 0.30 0.31 0.36 0.38 0.36 0.41 0.48 0.51 0.49 0.49 0.51 0.52 0.48 0.46 0.44 0.41 0.43 0.44 0.42 0.34 0.25 0.15 0.13 0.13 0.13 0.12 0.14 0.15 0.18 0.26 0.30 0.30 0.36 0.42 0.45 0.43 0.35
0.17 0.16 0.16 0.16 0.16 0.16 0.16 0.15 0.14 0.14 0.14 0.14 0.14 0.16 0.16 0.16 0.16 0.16 0.16 0.17 0.18 0.18 0.21 0.24 0.26 0.27 0.27 0.31 0.34 0.36 0.35 0.36 0.37 0.47 0.52 0.54 0.55 0.54 0.59 0.71 0.73 0.66 0.59 0.57 0.55 0.53 0.36 0.30 0.26 0.18 0.21 0.14 0.12 0.13 0.15 0.20 0.28 0.36 0.35 0.38 0.38 0.40 0.38
0.19 0.18 0.17 0.19 0.19 0.17 0.16 0.17 0.17 0.16 0.15 0.15 0.15 0.16 0.18 0.16 0.20 0.21 0.20 0.19 0.17 0.17 0.19 0.19 0.20 0.21 0.21 0.22 0.24 0.27 0.27 0.29 0.36 0.42 0.50 0.49 0.51 0.57 0.70 0.78 0.77 0.75 0.74 0.74 0.70 0.61 0.52 0.42 0.33 0.27 0.22 0.22 0.22 0.24 0.24 0.22 0.25 0.32 0.33 0.36 0.38 0.37 0.37
0.22 0.22 0.23 0.20 0.20 0.21 0.19 0.20 0.19 0.17 0.18 0.20 0.20 0.21 0.26 0.25 0.28 0.27 0.27 0.25 0.23 0.22 0.20 0.19 0.19 0.19 0.22 0.19 0.19 0.21 0.23 0.26 0.31 0.39 0.48 0.47 0.49 0.59 0.68 0.73 0.72 0.76 0.79 0.78 0.73 0.67 0.51 0.46 0.38 0.33 0.29 0.27 0.28 0.30 0.29 0.22 0.22 0.29 0.28 0.28 0.29 0.35 0.37
0.24 0.27 0.36 0.25 0.24 0.23 0.25 0.23 0.22 0.20 0.21 0.27 0.38 0.47 0.50 0.52 0.49 0.45 0.43 0.40 0.36 0.31 0.26 0.23 0.21 0.19 0.16 0.17 0.19 0.22 0.25 0.30 0.34 0.37 0.43 0.51 0.53 0.57 0.68 0.74 0.79 0.77 0.72 0.72 0.77 0.68 0.55 0.54 0.45 0.35 0.28 0.26 0.22 0.18 0.15 0.16 0.20 0.24 0.24 0.22 0.29 0.31 0.37
0.34 0.33 0.32 0.31 0.32 0.35 0.33 0.31 0.26 0.24 0.33 0.54 0.74 0.76 0.79 0.72 0.62 0.53 0.50 0.46 0.42 0.37 0.28 0.24 0.21 0.20 0.19 0.19 0.21 0.23 0.26 0.31 0.32 0.39 0.44 0.43 0.45 0.56 0.68 0.82 0.86 0.79 0.69 0.71 0.68 0.61 0.52 0.48 0.41 0.30 0.27 0.26 0.22 0.18 0.18 0.20 0.22 0.26 0.28 0.33 0.37 0.43 0.37
0.41 0.34 0.32 0.33 0.34 0.36 0.35 0.36 0.30 0.35 0.56 0.71 0.96 1.21 1.07 0.92 0.78 0.65 0.56 0.50 0.46 0.40 0.35 0.31 0.27 0.25 0.23 0.24 0.24 0.24 0.24 0.26 0.31 0.36 0.39 0.45 0.53 0.60 0.74 0.89 0.85 0.88 0.83 0.71 0.71 0.69 0.58 0.54 0.43 0.28 0.24 0.23 0.24 0.26 0.23 0.25 0.27 0.34 0.38 0.40 0.39 0.36 0.36
0.39 0.38 0.39 0.40 0.45 0.40 0.38 0.38 0.34 0.44 0.66 0.79 1.09 1.39 1.46 1.13 0.90 0.74 0.58 0.47 0.41 0.37 0.34 0.31 0.34 0.31 0.28 0.24 0.22 0.25 0.25 0.28 0.29 0.32 0.38 0.44 0.48 0.53 0.68 0.92 1.17 1.03 0.84 0.90 0.87 0.84 0.68 0.50 0.44 0.44 0.31 0.21 0.23 0.30 0.36 0.33 0.38 0.42 0.43 0.44 0.41 0.36 0.30
0.46 0.45 0.50 0.50 0.52 0.49 0.48 0.45 0.43 0.50 0.79 1.04 1.26 1.60 1.74 1.22 1.01 0.81 0.65 0.52 0.44 0.38 0.35 0.33 0.34 0.36 0.33 0.28 0.26 0.28 0.29 0.29 0.31 0.33 0.35 0.40 0.46 0.50 0.49 0.61 0.68 0.70 0.66 0.73 0.85 0.94 0.85 0.54 0.48 0.39 0.35 0.47 0.39 0.41 0.49 0.49 0.49 0.50 0.51 0.51 0.50 0.39 0.35
0.51 0.53 0.55 0.56 0.65 0.62 0.60 0.51 0.49 0.69 1.00 1.15 1.35 1.62 2.04 1.44 1.21 0.96 0.73 0.56 0.49 0.46 0.41 0.37 0.35 0.34 0.32 0.29 0.29 0.29 0.29 0.32 0.34 0.35 0.39 0.40 0.39 0.37 0.35 0.34 0.34 0.41 0.55 0.62 0.56 0.62 0.64 0.53 0.43 0.38 0.32 0.30 0.38 0.54 0.58 0.53 0.52 0.49 0.54 0.57 0.54 0.54 0.51
0.43 0.45 0.45 0.45 0.49 0.55 0.54 0.42 0.48 0.74 1.01 1.17 1.42 1.87 1.68 1.52 1.17 0.92 0.75 0.60 0.52 0.47 0.42 0.37 0.38 0.40 0.39 0.34 0.31 0.29 0.49 0.42 0.41 0.47 0.50 0.46 0.37 0.32 0.28 0.27 0.26 0.40 0.49 0.40 0.51 0.54 0.51 0.48 0.44 0.54 0.50 0.50 0.50 0.48 0.50 0.58 0.65 0.69 0.79 0.88 0.92 0.77 0.51
0.32 0.34 0.39 0.40 0.41 0.44 0.40 0.38 0.42 0.60 0.91 1.05 1.34 1.98 1.97 1.63 1.17 0.88 0.71 0.56 0.49 0.46 0.42 0.38 0.38 0.40 0.42 0.37 0.33 0.32 0.57 0.71 0.75 0.72 0.68 0.62 0.51 0.40 0.34 0.29 0.21 0.41 0.81 1.18 1.43 1.58 1.29 1.11 1.11 1.21 1.41 1.39 1.35 0.94 0.92 1.03 1.15 1.03 0.78 0.82 0.86 0.65 0.42
0.34 0.34 0.36 0.40 0.41 0.41 0.43 0.38 0.36 0.50 0.72 0.92 1.24 1.61 1.54 1.40 1.21 0.89 0.71 0.62 0.54 0.50 0.48 0.39 0.42 0.40 0.41 0.40 0.33 0.48 0.71 0.95 0.96 1.11 0.87 0.70 0.62 0.54 0.46 0.33 0.21 0.18 0.23 0.65 1.17 1.46 1.52 1.66 1.44 1.36 1.37 1.58 1.53 1.42 0.92 1.09 1.31 0.92 0.59 0.66 0.64 0.60 0.37
0.35 0.34 0.35 0.37 0.38 0.40 0.44 0.42 0.38 0.42 0.66 0.92 1.30 1.46 1.39 1.28 1.14 0.98 0.80 0.73 0.66 0.56 0.46 0.39 0.36 0.42 0.47 0.42 0.42 0.74 0.95 1.37 1.13 1.13 0.87 0.61 0.61 0.63 0.55 0.37 0.25 0.21 0.23 0.24 0.32 0.41 0.51 0.63 0.82 0.77 0.77 0.65 0.75 0.88 1.02 0.93 0.93 0.76 0.70 0.72 0.60 0.51 0.46
0.30 0.31 0.33 0.35 0.42 0.44 0.43 0.43 0.41 0.44 0.58 0.93 1.25 1.30 1.15 1.04 1.00 0.99 0.89 0.81 0.71 0.70 0.61 0.48 0.43 0.38 0.43 0.69 0.96 0.95 1.30 1.42 1.87 1.22 1.09 0.83 0.80 0.71 0.51 0.28 0.22 0.25 0.27 0.28 0.28 0.28 0.25 0.32 0.37 0.49 0.63 0.64 0.58 0.53 0.60 0.79 0.66 0.68 0.71 0.68 0.60 0.48 0.44
0.31 0.35 0.39 0.38 0.39 0.43 0.44 0.45 0.42 0.37 0.51 0.88 1.02 1.00 1.25 0.99 0.92 0.81 0.79 0.78 0.76 0.65 0.56 0.52 0.45 0.42 0.38 0.47 0.73 0.96 1.27 1.44 1.72 1.55 1.11 1.09 0.96 0.65 0.44 0.41 0.46 0.42 0.34 0.36 0.31 0.28 0.27 0.28 0.32 0.43 0.53 0.63 0.57 0.53 0.53 0.65 0.48 0.51 0.46 0.58 0.65 0.60 0.51
0.39 0.38 0.31 0.29 0.33 0.39 0.40 0.38 0.37 0.40 0.46 0.70 0.92 1.01 1.18 1.02 0.89 0.73 0.81 0.85 0.67 0.52 0.45 0.40 0.39 0.40 0.41 0.45 0.66 1.03 1.51 1.54 1.62 1.76 1.24 1.14 1.30 1.30 1.15 0.62 0.53 0.45 0.44 0.39 0.37 0.34 0.32 0.31 0.33 0.35 0.40 0.53 0.56 0.51 0.62 0.54 0.47 0.39 0.34 0.31 0.35 0.43 0.49
0.38 0.34 0.31 0.31 0.35 0.37 0.36 0.35 0.34 0.44 0.39 0.48 0.75 0.90 1.05 1.09 1.05 1.00 0.77 0.74 0.65 0.50 0.41 0.36 0.37 0.37 0.43 0.57 1.06 1.37 1.60 1.62 1.82 1.55 1.43 1.58 1.43 1.38 1.14 1.01 0.93 0.76 0.65 0.53 0.43 0.39 0.42 0.36 0.31 0.34 0.33 0.33 0.42 0.43 0.37 0.42 0.41 0.39 0.36 0.36 0.30 0.27 0.28
0.38 0.30 0.31 0.35 0.36 0.35 0.33 0.32 0.37 0.38 0.33 0.35 0.50 0.79 1.05 1.04 1.02 0.95 0.74 0.67 0.56 0.48 0.44 0.41 0.40 0.46 0.62 0.97 1.01 1.13 1.34 1.56 1.41 1.34 1.50 1.65 1.46 1.04 0.98 1.04 1.10 1.03 0.91 0.72 0.56 0.49 0.40 0.34 0.25 0.25 0.25 0.26 0.24 0.34 0.40 0.40 0.42 0.37 0.36 0.34 0.29 0.24 0.23
0.30 0.32 0.33 0.33 0.34 0.36 0.36 0.35 0.36 0.31 0.31 0.33 0.37 0.50 0.68 0.75 0.82 0.69 0.64 0.59 0.50 0.47 0.47 0.46 0.56 0.70 0.80 0.91 1.01 1.05 0.96 0.98 0.89 0.91 1.11 1.00 1.01 1.05 0.99 1.05 0.96 0.85 0.81 0.87 0.78 0.58 0.40 0.26 0.21 0.20 0.20 0.20 0.24 0.28 0.40 0.46 0.48 0.47 0.39 0.37 0.34 0.31 0.23
0.33 0.31 0.30 0.32 0.31 0.36 0.38 0.41 0.34 0.29 0.31 0.35 0.37 0.40 0.49 0.58 0.52 0.52 0.48 0.53 0.48 0.39 0.36 0.39 0.55 0.44 0.45 0.51 0.58 0.66 0.77 0.97 0.72 0.63 0.61 0.73 0.85 0.83 0.93 0.97 0.87 0.69 0.65 0.64 0.53 0.47 0.42 0.32 0.24 0.25 0.26 0.22 0.24 0.32 0.39 0.46 0.52 0.58 0.53 0.47 0.48 0.45 0.41
0.35 0.36 0.37 0.37 0.36 0.39 0.39 0.40 0.32 0.31 0.33 0.41 0.48 0.49 0.50 0.54 0.50 0.51 0.43 0.42 0.49 0.45 0.39 0.37 0.40 0.40 0.43 0.44 0.47 0.57 0.67 0.61 0.51 0.54 0.71 0.61 0.56 0.76 0.86 1.10 0.78 0.60 0.57 0.48 0.41 0.39 0.33 0.31 0.36 0.31 0.37 0.40 0.36 0.36 0.34 0.35 0.39 0.48 0.49 0.45 0.43 0.41 0.39
0.54 0.58 0.59 0.61 0.53 0.52 0.46 0.38 0.33 0.33 0.43 0.60 0.63 0.63 0.57 0.54 0.52 0.59 0.58 0.43 0.42 0.43 0.39 0.42 0.43 0.47 0.46 0.56 0.61 0.62 0.62 0.58 0.56 0.48 0.44 0.44 0.50 0.57 0.64 0.75 0.74 0.70 0.68 0.53 0.52 0.54 0.44 0.46 0.46 0.49 0.46 0.40 0.37 0.30 0.27 0.29 0.37 0.40 0.48 0.53 0.51 0.61 0.54
0.95 0.87 0.86 0.72 0.70 0.77 0.67 0.53 0.52 0.50 0.56 0.67 0.69 0.71 0.69 0.69 0.64 0.60 0.56 0.44 0.43 0.47 0.47 0.43 0.45 0.45 0.45 0.43 0.44 0.47 0.48 0.45 0.42 0.38 0.39 0.46 0.50 0.46 0.48 0.50 0.64 0.71 0.61 0.48 0.52 0.60 0.58 0.59 0.57 0.49 0.42 0.43 0.42 0.34 0.28 0.29 0.37 0.40 0.42 0.51 0.61 0.66 0.54
1.19 1.15 1.08 0.93 0.71 0.74 0.85 0.78 0.65 0.60 0.81 0.89 0.92 1.05 0.86 0.80 0.88 0.78 0.63 0.52 0.47 0.44 0.45 0.41 0.38 0.37 0.37 0.35 0.33 0.35 0.34 0.33 0.33 0.34 0.34 0.38 0.42 0.41 0.42 0.44 0.49 0.53 0.49 0.45 0.54 0.51 0.55 0.52 0.50 0.44 0.43 0.43 0.42 0.39 0.32 0.30 0.38 0.45 0.47 0.56 0.67 0.66 0.57
1.13 1.18 0.97 0.89 0.95 0.82 0.61 0.56 0.51 0.52 0.79 0.92 1.13 1.14 1.00 1.05 0.94 0.87 0.77 0.63 0.56 0.50 0.43 0.39 0.34 0.34 0.32 0.29 0.28 0.30 0.30 0.30 0.31 0.30 0.29 0.32 0.34 0.35 0.38 0.41 0.43 0.48 0.47 0.47 0.50 0.54 0.58 0.53 0.50 0.45 0.38 0.37 0.34 0.34 0.38 0.43 0.47 0.44 0.51 0.55 0.55 0.55 0.49
0.91 0.99 1.09 0.89 0.95 1.06 0.84 0.68 0.64 0.63 0.92 1.07 1.26 1.25 1.04 1.01 1.05 0.96 0.79 0.62 0.62 0.55 0.44 0.37 0.33 0.33 0.31 0.28 0.28 0.27 0.25 0.28 0.32 0.32 0.32 0.31 0.28 0.26 0.26 0.30 0.37 0.43 0.45 0.47 0.49 0.49 0.53 0.57 0.56 0.52 0.44 0.37 0.33 0.32 0.34 0.41 0.52 0.58 0.68 0.63 0.56 0.49 0.43
0.56 0.64 0.78 0.82 0.98 1.08 1.02 0.79 0.74 0.75 0.94 1.04 1.15 1.06 0.82 0.81 0.79 0.66 0.60 0.51 0.38 0.34 0.37 0.36 0.34 0.33 0.32 0.30 0.29 0.28 0.29 0.31 0.34 0.29 0.28 0.28 0.28 0.26 0.24 0.24 0.25 0.31 0.38 0.42 0.45 0.47 0.49 0.59 0.52 0.56 0.53 0.50 0.42 0.39 0.37 0.33 0.36 0.39 0.42 0.50 0.56 0.51 0.45
0.42 0.39 0.42 0.44 0.58 0.70 0.73 0.62 0.60 0.62 0.62 0.71 0.81 0.79 0.78 0.80 0.70 0.62 0.62 0.45 0.37 0.33 0.32 0.31 0.31 0.32 0.33 0.33 0.33 0.33 0.32 0.33 0.35 0.28 0.26 0.22 0.21 0.22 0.22 0.20 0.22 0.26 0.31 0.34 0.37 0.41 0.40 0.43 0.46 0.53 0.55 0.58 0.51 0.44 0.38 0.38 0.35 0.34 0.40 0.47 0.44 0.41 0.40
0.32 0.29 0.34 0.43 0.45 0.57 0.61 0.51 0.48 0.54 0.64 0.75 0.77 0.76 0.87 0.67 0.60 0.64 0.51 0.37 0.30 0.30 0.30 0.30 0.29 0.29 0.28 0.28 0.28 0.31 0.31 0.31 0.32 0.28 0.26 0.24 0.22 0.19 0.19 0.23 0.22 0.22 0.23 0.25 0.29 0.32 0.35 0.37 0.42 0.46 0.47 0.48 0.48 0.47 0.47 0.42 0.39 0.39 0.37 0.38 0.40 0.36 0.33
0.36 0.31 0.30 0.38 0.38 0.42 0.56 0.56 0.50 0.52 0.68 0.86 0.83 0.82 0.72 0.60 0.49 0.40 0.38 0.33 0.32 0.31 0.32 0.31 0.32 0.32 0.31 0.33 0.34 0.35 0.33 0.32 0.32 0.32 0.31 0.29 0.26 0.24 0.22 0.23 0.24 0.23 0.22 0.21 0.22 0.25 0.28 0.32 0.37 0.41 0.46 0.46 0.43 0.40 0.38 0.35 0.33 0.32 0.34 0.34 0.34 0.37 0.35

ECMWFFLT1_prec_precacc_174.txt.gz
Total_Precipitation_Accumulation
0.07 0.08 0.09 0.10 0.10 0.09 0.15 0.10 0.13 0.08 0.09 0.11 0.09 0.09 0.08 0.09 0.09 0.08 0.09 0.09 0.09 0.10 0.16 0.18 0.19 0.18 0.17 0.18 0.24 0.24 0.21 0.21 0.20 0.21 0.25 0.26 0.30 0.36 0.35 0.38 0.59 0.59 0.37 0.12 0.04 0.02 0.01 0.01 0.02 0.05 0.09 0.15 0.22 0.24 0.23 0.14 0.13 0.14 0.13 0.17 0.22 0.28 0.31
0.09 0.09 0.10 0.11 0.11 0.10 0.10 0.16 0.13 0.10 0.11 0.11 0.10 0.10 0.12 0.14 0.17 0.12 0.12 0.10 0.11 0.10 0.12 0.17 0.20 0.18 0.16 0.17 0.25 0.28 0.28 0.26 0.23 0.26 0.26 0.24 0.27 0.32 0.31 0.28 0.39 0.48 0.38 0.24 0.08 0.04 0.02 0.02 0.01 0.04 0.05 0.10 0.13 0.19 0.25 0.25 0.20 0.17 0.17 0.17 0.21 0.25 0.24
0.12 0.12 0.13 0.13 0.11 0.12 0.14 0.15 0.16 0.13 0.17 0.19 0.18 0.16 0.14 0.14 0.14 0.14 0.14 0.13 0.13 0.12 0.13 0.16 0.20 0.21 0.19 0.19 0.29 0.31 0.33 0.32 0.32 0.30 0.27 0.28 0.21 0.21 0.19 0.22 0.31 0.43 0.41 0.28 0.18 0.08 0.06 0.04 0.03 0.04 0.06 0.08 0.12 0.15 0.14 0.23 0.27 0.26 0.25 0.24 0.24 0.24 0.23
0.10 0.12 0.12 0.14 0.15 0.19 0.14 0.15 0.13 0.16 0.19 0.20 0.18 0.21 0.24 0.20 0.18 0.18 0.19 0.21 0.19 0.18 0.20 0.21 0.23 0.23 0.23 0.27 0.29 0.30 0.31 0.33 0.35 0.35 0.36 0.32 0.27 0.25 0.20 0.15 0.17 0.25 0.35 0.30 0.27 0.16 0.11 0.06 0.06 0.06 0.06 0.06 0.08 0.13 0.19 0.20 0.27 0.29 0.30 0.27 0.30 0.25 0.28
0.11 0.13 0.14 0.14 0.13 0.12 0.11 0.12 0.12 0.13 0.14 0.15 0.16 0.19 0.21 0.22 0.23 0.23 0.23 0.23 0.25 0.29 0.30 0.29 0.28 0.26 0.25 0.27 0.34 0.35 0.37 0.37 0.39 0.42 0.43 0.43 0.37 0.36 0.31 0.27 0.25 0.27 0.29 0.40 0.35 0.25 0.14 0.09 0.08 0.08 0.08 0.08 0.11 0.14 0.19 0.23 0.27 0.31 0.35 0.34 0.33 0.29 0.27
0.15 0.15 0.14 0.14 0.14 0.13 0.16 0.14 0.14 0.14 0.17 0.14 0.13 0.14 0.15 0.17 0.18 0.18 0.20 0.22 0.24 0.25 0.28 0.31 0.31 0.29 0.30 0.31 0.36 0.38 0.36 0.41 0.48 0.51 0.49 0.49 0.51 0.52 0.48 0.46 0.44 0.41 0.43 0.44 0.42 0.34 0.25 0.15 0.13 0.13 0.13 0.12 0.14 0.15 0.18 0.26 0.30 0.30 0.36 0.42 0.45 0.43 0.35
0.17 0.16 0.16 0.16 0.16 0.16 0.16 0.15 0.14 0.14 0.14 0.14 0.14 0.16 0.16 0.16 0.16 0.16 0.16 0.17 0.18 0.18 0.21 0.24 0.26 0.27 0.27 0.31 0.34 0.36 0.35 0.36 0.37 0.47 0.52 0.54 0.55 0.54 0.59 0.71 0.74 0.67 0.60 0.58 0.57 0.54 0.38 0.31 0.27 0.19 0.21 0.14 0.12 0.13 0.15 0.21 0.28 0.36 0.35 0.38 0.38 0.40 0.38
0.19 0.18 0.17 0.19 0.19 0.17 0.16 0.17 0.17 0.16 0.15 0.15 0.15 0.16 0.18 0.16 0.20 0.21 0.20 0.19 0.17 0.17 0.19 0.19 0.20 0.22 0.21 0.22 0.24 0.27 0.27 0.29 0.36 0.42 0.50 0.49 0.51 0.58 0.71 0.78 0.78 0.75 0.75 0.75 0.71 0.61 0.53 0.42 0.33 0.27 0.22 0.22 0.22 0.24 0.24 0.22 0.25 0.32 0.33 0.36 0.38 0.37 0.37
0.22 0.22 0.23 0.20 0.20 0.21 0.19 0.20 0.19 0.17 0.18 0.20 0.20 0.21 0.26 0.25 0.28 0.27 0.27 0.25 0.23 0.22 0.20 0.19 0.19 0.19 0.22 0.19 0.19 0.21 0.23 0.26 0.32 0.40 0.50 0.49 0.50 0.60 0.71 0.77 0.77 0.80 0.82 0.81 0.75 0.69 0.52 0.46 0.38 0.33 0.29 0.28 0.28 0.30 0.29 0.22 0.22 0.29 0.28 0.28 0.30 0.35 0.38
0.24 0.27 0.36 0.25 0.24 0.23 0.25 0.23 0.22 0.20 0.21 0.27 0.38 0.47 0.51 0.54 0.51 0.48 0.46 0.44 0.39 0.33 0.28 0.25 0.23 0.20 0.17 0.18 0.19 0.22 0.25 0.31 0.35 0.38 0.45 0.54 0.56 0.61 0.72 0.78 0.82 0.80 0.74 0.73 0.78 0.68 0.56 0.55 0.45 0.35 0.28 0.26 0.22 0.18 0.15 0.16 0.20 0.24 0.24 0.23 0.29 0.31 0.37
0.34 0.33 0.32 0.31 0.32 0.35 0.33 0.31 0.26 0.24 0.33 0.54 0.75 0.77 0.81 0.74 0.64 0.55 0.50 0.46 0.42 0.37 0.28 0.24 0.21 0.20 0.19 0.19 0.21 0.23 0.26 0.31 0.33 0.40 0.46 0.47 0.51 0.62 0.75 0.87 0.90 0.82 0.70 0.72 0.69 0.62 0.52 0.48 0.41 0.30 0.27 0.26 0.22 0.18 0.18 0.20 0.22 0.26 0.29 0.34 0.37 0.43 0.37
0.41 0.34 0.32 0.33 0.34 0.36 0.35 0.36 0.30 0.35 0.56 0.72 0.97 1.23 1.09 0.94 0.80 0.67 0.58 0.51 0.47 0.41 0.36 0.32 0.28 0.26 0.24 0.25 0.25 0.26 0.27 0.32 0.36 0.40 0.43 0.48 0.55 0.63 0.77 0.93 0.89 0.90 0.84 0.72 0.72 0.69 0.59 0.54 0.43 0.28 0.24 0.23 0.24 0.26 0.23 0.25 0.27 0.34 0.39 0.40 0.39 0.37 0.36
0.39 0.38 0.39 0.40 0.45 0.40 0.38 0.38 0.34 0.44 0.66 0.80 1.10 1.41 1.49 1.16 0.93 0.77 0.62 0.50 0.44 0.39 0.35 0.33 0.36 0.34 0.31 0.27 0.24 0.27 0.27 0.29 0.30 0.33 0.38 0.45 0.49 0.54 0.69 0.93 1.18 1.09 0.88 0.92 0.89 0.84 0.68 0.50 0.44 0.44 0.31 0.21 0.23 0.30 0.36 0.34 0.38 0.42 0.44 0.44 0.42 0.37 0.30
0.46 0.45 0.50 0.50 0.52 0.49 0.48 0.45 0.43 0.50 0.79 1.05 1.27 1.63 1.78 1.26 1.04 0.85 0.69 0.55 0.46 0.40 0.36 0.34 0.35 0.36 0.34 0.28 0.26 0.28 0.29 0.29 0.31 0.33 0.35 0.41 0.47 0.50 0.50 0.61 0.68 0.70 0.66 0.74 0.86 0.95 0.85 0.54 0.48 0.39 0.35 0.47 0.39 0.41 0.49 0.49 0.49 0.50 0.51 0.51 0.50 0.39 0.35
0.52 0.53 0.55 0.57 0.65 0.62 0.60 0.51 0.49 0.69 1.00 1.16 1.37 1.65 2.07 1.47 1.24 0.98 0.74 0.57 0.49 0.46 0.41 0.37 0.35 0.34 0.32 0.29 0.29 0.29 0.29 0.32 0.34 0.35 0.39 0.40 0.39 0.37 0.35 0.34 0.34 0.41 0.55 0.62 0.57 0.62 0.64 0.53 0.43 0.38 0.32 0.30 0.38 0.54 0.59 0.54 0.52 0.49 0.54 0.57 0.54 0.54 0.51
0.43 0.45 0.46 0.45 0.49 0.55 0.54 0.42 0.48 0.74 1.01 1.17 1.44 1.89 1.70 1.55 1.20 0.94 0.75 0.60 0.52 0.47 0.42 0.37 0.39 0.41 0.40 0.35 0.32 0.30 0.49 0.42 0.41 0.47 0.51 0.46 0.37 0.32 0.28 0.27 0.26 0.40 0.50 0.41 0.52 0.54 0.51 0.48 0.44 0.54 0.52 0.52 0.55 0.51 0.52 0.58 0.65 0.69 0.79 0.88 0.92 0.77 0.52
0.32 0.34 0.39 0.40 0.41 0.44 0.40 0.38 0.42 0.60 0.91 1.06 1.35 2.00 1.99 1.64 1.18 0.89 0.71 0.57 0.49 0.46 0.42 0.38 0.38 0.40 0.42 0.37 0.33 0.32 0.57 0.72 0.76 0.74 0.70 0.63 0.52 0.40 0.35 0.30 0.21 0.42 0.82 1.22 1.49 1.64 1.34 1.16 1.17 1.26 1.44 1.42 1.39 0.96 0.93 1.03 1.15 1.04 0.78 0.82 0.86 0.65 0.42
0.34 0.34 0.36 0.40 0.41 0.41 0.43 0.38 0.36 0.50 0.72 0.92 1.24 1.62 1.56 1.43 1.24 0.91 0.72 0.63 0.54 0.50 0.48 0.40 0.42 0.41 0.41 0.40 0.33 0.48 0.71 0.96 0.97 1.12 0.90 0.73 0.65 0.55 0.47 0.33 0.21 0.18 0.23 0.65 1.17 1.46 1.53 1.67 1.45 1.37 1.37 1.58 1.54 1.42 0.92 1.09 1.31 0.92 0.59 0.66 0.64 0.60 0.37
0.35 0.34 0.35 0.37 0.38 0.40 0.44 0.42 0.38 0.42 0.66 0.92 1.30 1.47 1.42 1.31 1.17 1.01 0.81 0.74 0.67 0.56 0.46 0.39 0.36 0.42 0.48 0.43 0.43 0.76 0.99 1.42 1.16 1.15 0.89 0.63 0.62 0.64 0.56 0.37 0.25 0.21 0.23 0.25 0.32 0.42 0.51 0.63 0.82 0.77 0.77 0.65 0.75 0.88 1.02 0.93 0.93 0.76 0.70 0.72 0.60 0.51 0.46
0.30 0.31 0.33 0.35 0.42 0.44 0.43 0.43 0.41 0.44 0.58 0.93 1.26 1.32 1.19 1.08 1.03 1.01 0.90 0.82 0.71 0.71 0.62 0.49 0.44 0.39 0.43 0.70 0.96 0.95 1.30 1.44 1.91 1.25 1.10 0.84 0.81 0.72 0.51 0.29 0.22 0.25 0.28 0.28 0.28 0.28 0.26 0.32 0.37 0.49 0.63 0.64 0.58 0.53 0.60 0.79 0.66 0.68 0.71 0.68 0.60 0.48 0.44
0.31 0.35 0.39 0.38 0.39 0.43 0.44 0.45 0.42 0.37 0.51 0.88 1.03 1.00 1.27 1.02 0.94 0.83 0.80 0.79 0.77 0.66 0.57 0.53 0.46 0.42 0.38 0.47 0.73 0.96 1.28 1.48 1.77 1.58 1.11 1.09 0.97 0.65 0.45 0.41 0.46 0.42 0.34 0.37 0.31 0.28 0.27 0.28 0.32 0.43 0.53 0.63 0.57 0.53 0.53 0.65 0.48 0.51 0.46 0.58 0.65 0.60 0.51
0.39 0.38 0.31 0.29 0.33 0.39 0.40 0.38 0.37 0.40 0.46 0.70 0.92 1.02 1.21 1.06 0.91 0.75 0.82 0.85 0.68 0.53 0.46 0.40 0.40 0.41 0.41 0.45 0.66 1.04 1.57 1.61 1.67 1.77 1.25 1.14 1.31 1.31 1.15 0.63 0.53 0.45 0.44 0.39 0.37 0.34 0.32 0.31 0.33 0.35 0.40 0.53 0.56 0.51 0.62 0.54 0.47 0.39 0.34 0.31 0.35 0.43 0.49
0.38 0.34 0.31 0.31 0.35 0.37 0.36 0.35 0.34 0.44 0.39 0.48 0.75 0.90 1.07 1.13 1.08 1.03 0.78 0.74 0.65 0.50 0.41 0.36 0.37 0.37 0.43 0.57 1.06 1.38 1.63 1.64 1.83 1.55 1.45 1.62 1.45 1.38 1.14 1.01 0.93 0.76 0.65 0.53 0.43 0.39 0.42 0.36 0.31 0.34 0.33 0.33 0.42 0.43 0.37 0.42 0.41 0.39 0.36 0.36 0.30 0.27 0.28
0.38 0.30 0.32 0.35 0.36 0.35 0.33 0.32 0.37 0.38 0.33 0.35 0.50 0.79 1.05 1.05 1.09 1.00 0.76 0.67 0.57 0.48 0.44 0.41 0.40 0.46 0.62 0.97 1.01 1.14 1.35 1.56 1.41 1.34 1.50 1.65 1.47 1.05 0.98 1.04 1.10 1.04 0.91 0.72 0.56 0.49 0.40 0.34 0.25 0.25 0.25 0.26 0.24 0.34 0.40 0.40 0.42 0.37 0.36 0.34 0.29 0.24 0.23
0.30 0.32 0.33 0.33 0.34 0.36 0.36 0.35 0.36 0.31 0.31 0.33 0.37 0.50 0.69 0.79 0.86 0.70 0.64 0.60 0.50 0.47 0.47 0.46 0.56 0.70 0.80 0.91 1.01 1.06 0.96 0.98 0.89 0.92 1.12 1.00 1.02 1.06 0.99 1.05 0.96 0.86 0.81 0.87 0.78 0.58 0.40 0.26 0.21 0.20 0.20 0.20 0.24 0.28 0.40 0.46 0.48 0.47 0.39 0.37 0.34 0.31 0.23
0.33 0.31 0.30 0.32 0.31 0.36 0.38 0.41 0.34 0.29 0.31 0.35 0.37 0.40 0.49 0.59 0.54 0.54 0.49 0.53 0.48 0.39 0.36 0.39 0.55 0.44 0.45 0.51 0.58 0.66 0.77 0.97 0.72 0.63 0.61 0.74 0.86 0.83 0.94 0.98 0.87 0.69 0.65 0.64 0.53 0.47 0.42 0.32 0.24 0.25 0.26 0.22 0.24 0.32 0.39 0.46 0.52 0.58 0.53 0.47 0.48 0.45 0.41
0.35 0.36 0.37 0.37 0.36 0.39 0.39 0.40 0.32 0.31 0.33 0.41 0.48 0.49 0.50 0.54 0.50 0.51 0.43 0.42 0.50 0.46 0.39 0.37 0.40 0.40 0.43 0.44 0.47 0.57 0.67 0.61 0.51 0.54 0.71 0.61 0.56 0.76 0.86 1.10 0.78 0.60 0.57 0.48 0.41 0.39 0.33 0.31 0.36 0.31 0.38 0.40 0.36 0.36 0.34 0.35 0.39 0.48 0.49 0.45 0.43 0.41 0.39
0.54 0.58 0.59 0.61 0.53 0.52 0.46 0.38 0.33 0.33 0.43 0.60 0.63 0.63 0.57 0.54 0.52 0.59 0.58 0.43 0.42 0.43 0.39 0.42 0.43 0.47 0.46 0.56 0.61 0.62 0.62 0.58 0.56 0.48 0.44 0.44 0.50 0.57 0.64 0.75 0.74 0.70 0.68 0.53 0.52 0.54 0.44 0.46 0.46 0.49 0.46 0.41 0.37 0.30 0.27 0.29 0.37 0.40 0.48 0.53 0.51 0.61 0.55
0.95 0.87 0.86 0.72 0.70 0.77 0.67 0.53 0.52 0.50 0.56 0.67 0.70 0.71 0.69 0.69 0.64 0.60 0.56 0.44 0.43 0.47 0.47 0.43 0.45 0.45 0.45 0.43 0.44 0.47 0.48 0.45 0.42 0.38 0.39 0.46 0.50 0.46 0.48 0.50 0.64 0.71 0.61 0.48 0.52 0.60 0.58 0.59 0.57 0.50 0.42 0.43 0.43 0.34 0.28 0.29 0.37 0.41 0.42 0.51 0.61 0.66 0.54
1.19 1.15 1.08 0.94 0.71 0.74 0.85 0.78 0.65 0.60 0.82 0.90 0.93 1.07 0.87 0.80 0.88 0.78 0.63 0.52 0.47 0.44 0.45 0.41 0.38 0.37 0.37 0.35 0.33 0.35 0.34 0.33 0.33 0.34 0.34 0.38 0.42 0.41 0.42 0.44 0.49 0.53 0.49 0.45 0.54 0.51 0.55 0.52 0.50 0.44 0.43 0.43 0.43 0.39 0.32 0.31 0.38 0.45 0.47 0.56 0.67 0.67 0.58
1.14 1.19 0.98 0.91 0.97 0.83 0.61 0.57 0.52 0.52 0.80 0.93 1.14 1.16 1.02 1.08 0.97 0.89 0.79 0.64 0.57 0.50 0.43 0.39 0.34 0.34 0.32 0.29 0.28 0.30 0.30 0.30 0.31 0.30 0.29 0.32 0.34 0.35 0.38 0.41 0.43 0.48 0.47 0.47 0.50 0.54 0.58 0.53 0.50 0.45 0.38 0.37 0.34 0.34 0.38 0.43 0.48 0.45 0.52 0.56 0.55 0.55 0.49
0.91 1.00 1.10 0.91 0.96 1.08 0.86 0.70 0.65 0.64 0.93 1.09 1.27 1.27 1.05 1.02 1.06 0.99 0.82 0.65 0.64 0.57 0.45 0.37 0.33 0.33 0.31 0.28 0.28 0.27 0.25 0.28 0.32 0.32 0.32 0.31 0.28 0.26 0.26 0.30 0.37 0.43 0.45 0.47 0.49 0.49 0.53 0.57 0.56 0.52 0.44 0.37 0.33 0.32 0.34 0.41 0.52 0.58 0.69 0.64 0.56 0.49 0.43
0.56 0.64 0.78 0.82 0.99 1.09 1.04 0.82 0.77 0.78 0.96 1.06 1.16 1.09 0.86 0.83 0.81 0.68 0.62 0.53 0.40 0.35 0.37 0.36 0.34 0.33 0.32 0.30 0.29 0.28 0.29 0.31 0.34 0.29 0.28 0.28 0.28 0.26 0.24 0.24 0.25 0.31 0.38 0.42 0.45 0.47 0.49 0.59 0.52 0.56 0.53 0.50 0.42 0.39 0.38 0.34 0.36 0.39 0.42 0.50 0.56 0.51 0.45
0.42 0.39 0.42 0.44 0.58 0.70 0.74 0.64 0.61 0.64 0.65 0.74 0.84 0.82 0.82 0.82 0.71 0.62 0.63 0.46 0.38 0.33 0.32 0.32 0.32 0.32 0.33 0.33 0.33 0.33 0.32 0.33 0.35 0.28 0.26 0.22 0.21 0.22 0.22 0.20 0.22 0.26 0.31 0.34 0.37 0.41 0.40 0.43 0.46 0.53 0.55 0.58 0.51 0.44 0.38 0.38 0.35 0.34 0.41 0.48 0.45 0.41 0.40
0.33 0.29 0.34 0.43 0.45 0.57 0.61 0.52 0.49 0.55 0.65 0.76 0.78 0.77 0.88 0.70 0.61 0.64 0.52 0.37 0.30 0.31 0.31 0.30 0.30 0.29 0.28 0.28 0.28 0.31 0.31 0.31 0.32 0.28 0.26 0.24 0.22 0.19 0.19 0.23 0.22 0.22 0.23 0.25 0.29 0.32 0.35 0.37 0.42 0.46 0.47 0.48 0.48 0.47 0.47 0.42 0.39 0.39 0.37 0.38 0.40 0.36 0.34
0.36 0.31 0.30 0.38 0.38 0.42 0.56 0.56 0.50 0.52 0.69 0.86 0.84 0.83 0.73 0.63 0.52 0.41 0.38 0.33 0.32 0.31 0.32 0.31 0.32 0.32 0.31 0.33 0.34 0.35 0.33 0.32 0.32 0.32 0.31 0.29 0.26 0.24 0.22 0.23 0.24 0.23 0.22 0.21 0.22 0.25 0.28 0.32 0.37 0.41 0.46 0.46 0.43 0.40 0.38 0.35 0.33 0.33 0.34 0.34 0.34 0.38 0.36

ECMWFFLT1_prec_precacc_180.txt.gz
Total_Precipitation_Accumulation
0.07 0.08 0.09 0.10 0.10 0.09 0.15 0.10 0.13 0.08 0.09 0.11 0.09 0.09 0.08 0.09 0.09 0.08 0.09 0.09 0.09 0.10 0.16 0.18 0.19 0.18 0.17 0.19 0.24 0.24 0.21 0.22 0.21 0.22 0.25 0.27 0.31 0.37 0.35 0.38 0.60 0.60 0.38 0.12 0.04 0.02 0.01 0.01 0.02 0.05 0.09 0.15 0.22 0.24 0.23 0.14 0.13 0.14 0.13 0.17 0.22 0.28 0.31
0.09 0.09 0.10 0.11 0.11 0.10 0.10 0.16 0.13 0.10 0.11 0.11 0.10 0.10 0.12 0.14 0.17 0.12 0.12 0.10 0.11 0.10 0.12 0.17 0.20 0.18 0.16 0.18 0.26 0.29 0.29 0.28 0.24 0.28 0.28 0.25 0.28 0.33 0.33 0.29 0.41 0.49 0.39 0.25 0.08 0.04 0.02 0.02 0.01 0.04 0.05 0.10 0.13 0.19 0.25 0.25 0.20 0.17 0.17 0.17 0.21 0.25 0.24
0.12 0.12 0.13 0.13 0.11 0.12 0.14 0.15 0.16 0.13 0.17 0.19 0.18 0.16 0.14 0.14 0.14 0.14 0.14 0.13 0.13 0.12 0.13 0.16 0.20 0.21 0.19 0.19 0.29 0.31 0.34 0.32 0.33 0.31 0.29 0.29 0.22 0.22 0.20 0.23 0.32 0.44 0.42 0.28 0.18 0.08 0.06 0.04 0.03 0.04 0.06 0.08 0.12 0.15 0.14 0.23 0.27 0.26 0.25 0.24 0.24 0.24 0.23
0.10 0.12 0.12 0.14 0.15 0.19 0.14 0.15 0.13 0.16 0.19 0.20 0.18 0.21 0.24 0.20 0.18 0.18 0.19 0.21 0.19 0.18 0.20 0.21 0.23 0.23 0.23 0.27 0.29 0.30 0.31 0.34 0.35 0.36 0.36 0.32 0.27 0.25 0.20 0.16 0.17 0.25 0.35 0.30 0.27 0.16 0.11 0.06 0.06 0.06 0.06 0.06 0.08 0.13 0.19 0.20 0.27 0.29 0.30 0.27 0.30 0.25 0.28
0.11 0.13 0.14 0.14 0.13 0.12 0.11 0.12 0.12 0.13 0.14 0.15 0.16 0.19 0.21 0.22 0.23 0.23 0.23 0.23 0.25 0.29 0.30 0.29 0.28 0.26 0.25 0.27 0.34 0.35 0.37 0.38 0.39 0.42 0.43 0.43 0.37 0.36 0.31 0.27 0.26 0.27 0.29 0.40 0.35 0.25 0.14 0.09 0.08 0.08 0.08 0.08 0.11 0.14 0.19 0.23 0.27 0.31 0.35 0.34 0.33 0.29 0.27
0.15 0.15 0.14 0.14 0.14 0.13 0.16 0.14 0.14 0.14 0.17 0.14 0.13 0.14 0.15 0.17 0.18 0.18 0.20 0.22 0.24 0.25 0.28 0.31 0.31 0.29 0.30 0.31 0.36 0.39 0.36 0.41 0.48 0.51 0.49 0.49 0.51 0.53 0.48 0.46 0.44 0.41 0.43 0.44 0.42 0.34 0.25 0.15 0.13 0.13 0.13 0.12 0.14 0.15 0.18 0.26 0.30 0.30 0.36 0.42 0.45 0.43 0.35
0.17 0.16 0.16 0.16 0.16 0.16 0.16 0.15 0.14 0.14 0.14 0.14 0.14 0.16 0.16 0.16 0.16 0.16 0.16 0.17 0.18 0.18 0.21 0.24 0.26 0.27 0.27 0.31 0.34 0.36 0.35 0.36 0.37 0.47 0.52 0.54 0.55 0.54 0.59 0.71 0.74 0.67 0.60 0.58 0.57 0.55 0.38 0.31 0.27 0.19 0.21 0.14 0.12 0.13 0.15 0.21 0.28 0.36 0.35 0.38 0.38 0.40 0.38
0.19 0.18 0.17 0.19 0.19 0.17 0.16 0.17 0.17 0.16 0.15 0.15 0.15 0.16 0.18 0.16 0.20 0.21 0.20 0.19 0.17 0.17 0.19 0.19 0.20 0.22 0.21 0.22 0.24 0.27 0.27 0.29 0.36 0.42 0.50 0.49 0.51 0.58 0.71 0.78 0.78 0.75 0.75 0.75 0.71 0.62 0.53 0.42 0.33 0.27 0.22 0.22 0.22 0.24 0.24 0.22 0.25 0.32 0.33 0.36 0.38 0.37 0.37
0.22 0.22 0.23 0.20 0.20 0.21 0.19 0.20 0.19 0.17 0.18 0.20 0.20 0.21 0.26 0.25 0.28 0.27 0.27 0.25 0.23 0.22 0.20 0.19 0.19 0.19 0.22 0.19 0.19 0.21 0.23 0.26 0.32 0.41 0.50 0.50 0.51 0.61 0.71 0.78 0.78 0.81 0.83 0.82 0.76 0.69 0.52 0.47 0.39 0.34 0.30 0.28 0.28 0.30 0.29 0.22 0.22 0.29 0.28 0.28 0.30 0.35 0.38
0.24 0.27 0.36 0.25 0.24 0.23 0.25 0.23 0.22 0.20 0.21 0.27 0.38 0.47 0.51 0.54 0.52 0.48 0.46 0.45 0.40 0.34 0.28 0.25 0.23 0.20 0.17 0.18 0.19 0.22 0.25 0.31 0.35 0.38 0.45 0.54 0.57 0.62 0.73 0.79 0.83 0.81 0.75 0.75 0.80 0.70 0.57 0.56 0.46 0.35 0.29 0.26 0.22 0.18 0.15 0.16 0.20 0.24 0.24 0.23 0.29 0.31 0.37
0.34 0.33 0.32 0.31 0.32 0.35 0.33 0.31 0.26 0.24 0.33 0.54 0.75 0.77 0.82 0.75 0.66 0.56 0.51 0.47 0.42 0.37 0.29 0.24 0.21 0.20 0.19 0.19 0.21 0.23 0.26 0.31 0.33 0.40 0.46 0.47 0.51 0.63 0.77 0.91 0.95 0.87 0.74 0.75 0.72 0.63 0.53 0.49 0.42 0.31 0.28 0.26 0.22 0.18 0.18 0.20 0.22 0.26 0.29 0.34 0.37 0.43 0.37
0.41 0.34 0.32 0.33 0.34 0.36 0.35 0.36 0.30 0.35 0.56 0.72 0.97 1.23 1.10 0.95 0.82 0.69 0.60 0.52 0.48 0.42 0.37 0.33 0.29 0.27 0.25 0.25 0.25 0.26 0.27 0.32 0.36 0.41 0.43 0.48 0.56 0.64 0.79 0.95 0.91 0.94 0.88 0.75 0.75 0.72 0.61 0.56 0.44 0.28 0.24 0.23 0.24 0.26 0.23 0.25 0.27 0.34 0.39 0.40 0.39 0.37 0.36
0.39 0.38 0.39 0.40 0.45 0.40 0.38 0.38 0.34 0.44 0.66 0.80 1.10 1.41 1.49 1.17 0.94 0.79 0.63 0.52 0.45 0.41 0.38 0.35 0.37 0.35 0.32 0.27 0.24 0.27 0.27 0.29 0.30 0.33 0.38 0.45 0.49 0.54 0.70 0.93 1.18 1.10 0.89 0.95 0.92 0.87 0.69 0.50 0.44 0.44 0.31 0.21 0.23 0.30 0.36 0.34 0.38 0.42 0.44 0.44 0.42 0.37 0.30
0.46 0.45 0.50 0.50 0.52 0.49 0.48 0.45 0.43 0.50 0.79 1.05 1.27 1.63 1.78 1.27 1.06 0.87 0.71 0.57 0.48 0.41 0.36 0.34 0.35 0.37 0.34 0.28 0.26 0.28 0.29 0.29 0.31 0.33 0.35 0.41 0.47 0.50 0.50 0.61 0.68 0.70 0.66 0.74 0.86 0.96 0.86 0.54 0.48 0.39 0.35 0.47 0.39 0.41 0.49 0.49 0.49 0.50 0.51 0.51 0.50 0.39 0.35
0.52 0.53 0.55 0.57 0.65 0.62 0.60 0.51 0.49 0.69 1.00 1.16 1.38 1.66 2.08 1.49 1.26 1.00 0.76 0.58 0.50 0.47 0.42 0.37 0.35 0.34 0.32 0.29 0.29 0.29 0.29 0.32 0.34 0.35 0.39 0.40 0.39 0.37 0.35 0.34 0.34 0.41 0.56 0.62 0.57 0.62 0.64 0.53 0.43 0.38 0.32 0.30 0.38 0.55 0.59 0.54 0.52 0.50 0.54 0.57 0.54 0.54 0.51
0.43 0.45 0.46 0.45 0.49 0.55 0.54 0.42 0.48 0.74 1.01 1.18 1.44 1.90 1.71 1.57 1.21 0.95 0.76 0.61 0.52 0.47 0.42 0.37 0.39 0.41 0.40 0.35 0.32 0.30 0.49 0.42 0.41 0.48 0.51 0.46 0.37 0.32 0.28 0.27 0.26 0.40 0.50 0.42 0.52 0.54 0.52 0.49 0.45 0.55 0.53 0.54 0.56 0.52 0.52 0.58 0.65 0.69 0.79 0.88 0.92 0.77 0.52
0.32 0.34 0.39 0.40 0.41 0.44 0.41 0.38 0.42 0.60 0.91 1.06 1.35 2.00 2.00 1.65 1.18 0.89 0.71 0.57 0.50 0.46 0.42 0.38 0.38 0.40 0.42 0.37 0.33 0.32 0.57 0.72 0.76 0.74 0.71 0.64 0.52 0.40 0.35 0.30 0.21 0.42 0.84 1.26 1.55 1.73 1.43 1.24 1.23 1.31 1.51 1.48 1.43 0.96 0.93 1.03 1.15 1.04 0.78 0.82 0.86 0.65 0.42
0.34 0.34 0.36 0.40 0.41 0.41 0.44 0.39 0.37 0.50 0.72 0.92 1.24 1.63 1.57 1.45 1.26 0.94 0.74 0.65 0.55 0.51 0.48 0.40 0.42 0.41 0.41 0.40 0.33 0.48 0.71 0.96 0.97 1.14 0.93 0.77 0.68 0.57 0.48 0.33 0.21 0.18 0.23 0.65 1.17 1.46 1.53 1.67 1.45 1.37 1.38 1.60 1.56 1.43 0.93 1.10 1.31 0.93 0.59 0.66 0.64 0.60 0.37
0.35 0.34 0.35 0.37 0.38 0.40 0.44 0.42 0.38 0.42 0.66 0.92 1.31 1.47 1.42 1.31 1.17 1.01 0.82 0.74 0.67 0.56 0.46 0.39 0.36 0.42 0.48 0.44 0.43 0.76 0.99 1.43 1.18 1.19 0.92 0.64 0.63 0.65 0.56 0.37 0.25 0.21 0.23 0.25 0.32 0.42 0.51 0.63 0.83 0.78 0.78 0.67 0.77 0.89 1.03 0.93 0.93 0.77 0.70 0.72 0.60 0.51 0.46
0.30 0.31 0.33 0.35 0.42 0.44 0.44 0.43 0.41 0.44 0.58 0.93 1.26 1.32 1.20 1.10 1.06 1.04 0.93 0.84 0.73 0.72 0.63 0.50 0.44 0.39 0.43 0.70 0.96 0.95 1.31 1.46 1.96 1.30 1.14 0.86 0.82 0.73 0.52 0.29 0.23 0.25 0.28 0.28 0.28 0.28 0.26 0.32 0.38 0.50 0.63 0.64 0.58 0.53 0.60 0.79 0.66 0.69 0.71 0.68 0.60 0.48 0.44
0.31 0.35 0.39 0.38 0.39 0.43 0.45 0.45 0.42 0.37 0.51 0.88 1.03 1.01 1.28 1.03 0.96 0.84 0.80 0.79 0.77 0.66 0.58 0.53 0.46 0.42 0.38 0.47 0.73 0.96 1.28 1.49 1.80 1.68 1.16 1.11 0.97 0.66 0.45 0.41 0.47 0.42 0.34 0.37 0.31 0.28 0.27 0.28 0.32 0.43 0.53 0.63 0.57 0.53 0.53 0.65 0.48 0.51 0.46 0.58 0.65 0.60 0.51
0.39 0.38 0.31 0.29 0.33 0.39 0.41 0.38 0.37 0.40 0.46 0.70 0.92 1.02 1.21 1.07 0.93 0.77 0.83 0.85 0.68 0.53 0.46 0.40 0.40 0.41 0.41 0.45 0.66 1.04 1.57 1.63 1.74 1.83 1.26 1.14 1.35 1.35 1.15 0.63 0.53 0.45 0.44 0.39 0.37 0.34 0.32 0.31 0.33 0.35 0.40 0.53 0.56 0.51 0.62 0.54 0.47 0.39 0.34 0.31 0.35 0.43 0.49
0.39 0.34 0.31 0.31 0.35 0.37 0.36 0.35 0.34 0.44 0.39 0.48 0.75 0.90 1.07 1.14 1.10 1.05 0.80 0.76 0.67 0.51 0.42 0.36 0.37 0.37 0.43 0.57 1.06 1.39 1.64 1.71 1.87 1.56 1.45 1.63 1.47 1.38 1.14 1.01 0.93 0.76 0.65 0.53 0.43 0.39 0.42 0.36 0.31 0.34 0.33 0.33 0.43 0.43 0.37 0.42 0.41 0.39 0.36 0.36 0.30 0.27 0.28
0.38 0.31 0.32 0.35 0.36 0.35 0.33 0.33 0.37 0.38 0.33 0.35 0.50 0.79 1.05 1.06 1.10 1.01 0.78 0.70 0.59 0.50 0.46 0.42 0.40 0.46 0.63 0.97 1.02 1.15 1.40 1.58 1.41 1.34 1.51 1.65 1.47 1.05 0.98 1.04 1.10 1.04 0.91 0.72 0.56 0.49 0.40 0.34 0.25 0.25 0.25 0.26 0.24 0.34 0.40 0.40 0.42 0.37 0.36 0.34 0.29 0.24 0.23
0.30 0.32 0.33 0.33 0.34 0.36 0.36 0.35 0.36 0.31 0.31 0.33 0.37 0.50 0.69 0.79 0.87 0.71 0.65 0.60 0.50 0.47 0.47 0.46 0.56 0.70 0.80 0.91 1.02 1.07 0.96 0.98 0.89 0.92 1.12 1.00 1.02 1.06 0.99 1.05 0.96 0.86 0.81 0.87 0.78 0.58 0.40 0.26 0.21 0.20 0.20 0.20 0.24 0.28 0.40 0.46 0.48 0.47 0.39 0.37 0.34 0.31 0.23
0.34 0.31 0.30 0.32 0.31 0.36 0.38 0.41 0.34 0.29 0.31 0.35 0.37 0.40 0.49 0.59 0.55 0.55 0.50 0.54 0.48 0.39 0.36 0.39 0.55 0.44 0.46 0.51 0.58 0.66 0.77 0.97 0.72 0.63 0.61 0.74 0.86 0.83 0.94 0.98 0.87 0.69 0.65 0.64 0.53 0.47 0.42 0.32 0.24 0.25 0.26 0.22 0.24 0.32 0.39 0.46 0.52 0.58 0.53 0.47 0.48 0.45 0.41
0.36 0.36 0.37 0.38 0.36 0.39 0.39 0.40 0.32 0.31 0.33 0.41 0.48 0.49 0.50 0.54 0.50 0.52 0.44 0.43 0.50 0.46 0.39 0.37 0.40 0.41 0.43 0.44 0.47 0.57 0.67 0.61 0.51 0.54 0.71 0.61 0.56 0.76 0.86 1.10 0.78 0.60 0.57 0.48 0.41 0.39 0.33 0.31 0.36 0.31 0.38 0.40 0.36 0.36 0.34 0.35 0.39 0.48 0.49 0.45 0.43 0.41 0.39
0.54 0.58 0.59 0.61 0.53 0.52 0.46 0.39 0.33 0.33 0.43 0.60 0.63 0.63 0.57 0.54 0.52 0.59 0.58 0.43 0.42 0.43 0.40 0.42 0.43 0.47 0.46 0.56 0.61 0.62 0.62 0.58 0.56 0.48 0.44 0.44 0.50 0.57 0.64 0.75 0.74 0.70 0.68 0.53 0.52 0.54 0.44 0.46 0.46 0.49 0.46 0.41 0.37 0.30 0.27 0.29 0.37 0.40 0.48 0.53 0.51 0.61 0.55
0.96 0.87 0.87 0.72 0.70 0.77 0.67 0.53 0.52 0.50 0.56 0.67 0.70 0.71 0.69 0.69 0.64 0.60 0.56 0.44 0.43 0.47 0.47 0.44 0.45 0.45 0.45 0.43 0.44 0.47 0.48 0.45 0.42 0.38 0.39 0.46 0.50 0.46 0.48 0.50 0.64 0.71 0.61 0.48 0.52 0.60 0.58 0.59 0.57 0.50 0.42 0.43 0.43 0.34 0.28 0.29 0.37 0.41 0.42 0.52 0.61 0.66 0.54
1.20 1.16 1.08 0.94 0.71 0.74 0.85 0.78 0.65 0.60 0.82 0.90 0.94 1.07 0.88 0.81 0.88 0.78 0.63 0.52 0.47 0.44 0.45 0.42 0.38 0.37 0.37 0.35 0.33 0.35 0.34 0.33 0.33 0.34 0.34 0.38 0.42 0.41 0.42 0.44 0.49 0.53 0.49 0.45 0.54 0.51 0.55 0.52 0.50 0.44 0.43 0.43 0.43 0.39 0.32 0.31 0.38 0.45 0.47 0.56 0.68 0.67 0.58
1.14 1.20 0.99 0.91 0.97 0.84 0.61 0.57 0.52 0.53 0.80 0.93 1.15 1.16 1.03 1.09 0.98 0.91 0.80 0.64 0.57 0.51 0.43 0.40 0.34 0.34 0.32 0.30 0.29 0.30 0.30 0.30 0.31 0.30 0.29 0.32 0.34 0.35 0.38 0.41 0.43 0.48 0.47 0.47 0.50 0.54 0.58 0.53 0.50 0.45 0.38 0.37 0.34 0.34 0.38 0.43 0.48 0.45 0.52 0.56 0.55 0.55 0.49
0.92 1.01 1.11 0.92 0.97 1.09 0.87 0.70 0.66 0.64 0.93 1.09 1.28 1.28 1.06 1.04 1.08 1.00 0.84 0.67 0.66 0.58 0.45 0.38 0.33 0.33 0.31 0.29 0.28 0.27 0.25 0.28 0.32 0.32 0.32 0.31 0.28 0.26 0.26 0.30 0.37 0.43 0.45 0.47 0.49 0.49 0.53 0.57 0.56 0.52 0.44 0.37 0.33 0.32 0.34 0.41 0.52 0.58 0.69 0.64 0.56 0.49 0.43
0.57 0.65 0.79 0.84 1.00 1.11 1.06 0.83 0.78 0.79 0.97 1.07 1.18 1.11 0.88 0.85 0.83 0.70 0.65 0.56 0.43 0.39 0.40 0.37 0.34 0.34 0.32 0.30 0.29 0.28 0.29 0.31 0.34 0.29 0.28 0.28 0.28 0.26 0.24 0.24 0.25 0.31 0.38 0.42 0.45 0.47 0.49 0.59 0.52 0.56 0.53 0.50 0.42 0.39 0.38 0.34 0.36 0.39 0.42 0.50 0.57 0.52 0.45
0.43 0.40 0.43 0.45 0.59 0.71 0.75 0.65 0.62 0.65 0.66 0.75 0.85 0.83 0.84 0.84 0.73 0.63 0.64 0.47 0.40 0.35 0.34 0.33 0.32 0.32 0.33 0.33 0.33 0.33 0.32 0.33 0.35 0.28 0.26 0.22 0.21 0.22 0.22 0.20 0.22 0.26 0.31 0.34 0.37 0.41 0.40 0.43 0.46 0.53 0.55 0.58 0.51 0.44 0.38 0.38 0.35 0.34 0.41 0.48 0.45 0.41 0.40
0.34 0.30 0.34 0.44 0.46 0.57 0.62 0.52 0.49 0.55 0.65 0.76 0.78 0.77 0.89 0.71 0.63 0.65 0.53 0.38 0.31 0.31 0.32 0.31 0.30 0.30 0.28 0.28 0.29 0.31 0.32 0.32 0.32 0.28 0.26 0.24 0.22 0.19 0.20 0.23 0.22 0.22 0.23 0.25 0.29 0.32 0.35 0.37 0.42 0.46 0.47 0.48 0.48 0.47 0.47 0.42 0.39 0.39 0.37 0.38 0.41 0.37 0.34
0.37 0.32 0.31 0.39 0.38 0.42 0.56 0.56 0.50 0.52 0.69 0.86 0.84 0.83 0.73 0.65 0.53 0.42 0.39 0.34 0.32 0.31 0.32 0.31 0.32 0.32 0.32 0.34 0.35 0.35 0.33 0.32 0.32 0.32 0.31 0.29 0.26 0.24 0.22 0.23 0.24 0.23 0.22 0.21 0.22 0.25 0.28 0.32 0.37 0.41 0.46 0.46 0.43 0.40 0.38 0.35 0.33 0.33 0.34 0.34 0.34 0.38 0.36

ECMWFFLT1_prec_precacc_186.txt.gz
Total_Precipitation_Accumulation
0.07 0.08 0.09 0.10 0.10 0.09 0.15 0.10 0.13 0.08 0.09 0.11 0.09 0.09 0.08 0.09 0.09 0.08 0.09 0.09 0.09 0.10 0.16 0.18 0.19 0.18 0.17 0.19 0.24 0.24 0.21 0.22 0.21 0.22 0.25 0.27 0.31 0.37 0.35 0.38 0.60 0.60 0.38 0.12 0.04 0.02 0.01 0.01 0.02 0.05 0.09 0.15 0.22 0.24 0.23 0.14 0.13 0.14 0.13 0.17 0.22 0.28 0.31
0.09 0.09 0.10 0.11 0.11 0.10 0.10 0.16 0.13 0.10 0.11 0.11 0.10 0.10 0.12 0.14 0.17 0.12 0.12 0.10 0.11 0.10 0.12 0.17 0.20 0.18 0.16 0.18 0.26 0.29 0.29 0.28 0.24 0.28 0.28 0.25 0.28 0.33 0.33 0.29 0.41 0.49 0.40 0.25 0.08 0.04 0.02 0.02 0.01 0.04 0.05 0.10 0.13 0.19 0.25 0.25 0.20 0.17 0.17 0.17 0.21 0.25 0.24
0.12 0.12 0.13 0.13 0.11 0.12 0.14 0.15 0.16 0.13 0.17 0.19 0.18 0.16 0.14 0.14 0.14 0.14 0.14 0.13 0.13 0.12 0.13 0.16 0.20 0.21 0.19 0.19 0.29 0.31 0.34 0.32 0.33 0.31 0.29 0.29 0.22 0.22 0.20 0.23 0.32 0.44 0.42 0.29 0.18 0.08 0.06 0.04 0.03 0.04 0.06 0.08 0.12 0.15 0.14 0.23 0.27 0.26 0.25 0.24 0.24 0.24 0.23
0.10 0.12 0.12 0.14 0.15 0.19 0.14 0.15 0.13 0.16 0.19 0.20 0.18 0.21 0.24 0.20 0.18 0.18 0.19 0.21 0.19 0.18 0.20 0.21 0.23 0.23 0.23 0.27 0.29 0.30 0.31 0.34 0.35 0.36 0.36 0.32 0.27 0.25 0.20 0.16 0.17 0.25 0.35 0.30 0.27 0.16 0.11 0.06 0.06 0.06 0.06 0.06 0.08 0.13 0.19 0.20 0.27 0.29 0.30 0.27 0.30 0.25 0.28
0.11 0.13 0.14 0.14 0.13 0.12 0.11 0.12 0.12 0.13 0.14 0.15 0.16 0.19 0.21 0.22 0.23 0.23 0.23 0.23 0.25 0.29 0.30 0.29 0.28 0.26 0.25 0.27 0.34 0.35 0.37 0.38 0.39 0.42 0.43 0.43 0.37 0.36 0.31 0.27 0.26 0.27 0.29 0.40 0.35 0.25 0.14 0.09 0.08 0.08 0.08 0.08 0.11 0.14 0.19 0.23 0.27 0.31 0.35 0.34 0.33 0.29 0.27
0.15 0.15 0.14 0.14 0.14 0.13 0.16 0.14 0.14 0.14 0.17 0.14 0.13 0.14 0.15 0.17 0.18 0.18 0.20 0.22 0.24 0.25 0.28 0.31 0.31 0.29 0.30 0.31 0.36 0.39 0.36 0.41 0.48 0.51 0.49 0.49 0.51 0.53 0.48 0.46 0.44 0.41 0.43 0.44 0.42 0.34 0.25 0.15 0.13 0.13 0.13 0.12 0.14 0.15 0.18 0.26 0.30 0.30 0.36 0.42 0.45 0.43 0.35
0.17 0.16 0.16 0.16 0.16 0.16 0.16 0.15 0.14 0.14 0.14 0.14 0.14 0.16 0.16 0.16 0.16 0.16 0.16 0.17 0.18 0.18 0.21 0.24 0.26 0.27 0.27 0.31 0.34 0.36 0.35 0.36 0.37 0.47 0.52 0.54 0.55 0.54 0.59 0.71 0.74 0.67 0.60 0.58 0.57 0.55 0.38 0.31 0.27 0.19 0.21 0.14 0.12 0.13 0.15 0.21 0.28 0.36 0.35 0.38 0.38 0.40 0.38
0.19 0.18 0.17 0.19 0.19 0.17 0.16 0.17 0.17 0.16 0.15 0.15 0.15 0.16 0.18 0.17 0.20 0.21 0.20 0.19 0.17 0.17 0.19 0.19 0.20 0.22 0.21 0.22 0.24 0.27 0.27 0.29 0.36 0.42 0.50 0.49 0.51 0.58 0.71 0.78 0.78 0.75 0.75 0.75 0.71 0.62 0.53 0.42 0.33 0.27 0.22 0.22 0.22 0.24 0.24 0.22 0.25 0.32 0.33 0.36 0.38 0.37 0.37
0.22 0.22 0.23 0.20 0.20 0.21 0.19 0.20 0.19 0.18 0.18 0.20 0.20 0.22 0.26 0.25 0.28 0.27 0.27 0.25 0.23 0.22 0.20 0.19 0.19 0.19 0.22 0.19 0.19 0.21 0.23 0.26 0.32 0.41 0.50 0.50 0.51 0.61 0.72 0.78 0.78 0.81 0.83 0.82 0.76 0.70 0.52 0.47 0.39 0.34 0.30 0.28 0.28 0.30 0.29 0.22 0.22 0.29 0.28 0.28 0.30 0.35 0.38
0.24 0.27 0.36 0.25 0.24 0.23 0.25 0.24 0.22 0.20 0.21 0.27 0.38 0.47 0.51 0.54 0.52 0.48 0.47 0.45 0.40 0.34 0.28 0.25 0.23 0.20 0.17 0.18 0.19 0.22 0.25 0.31 0.35 0.38 0.45 0.54 0.57 0.62 0.73 0.80 0.84 0.82 0.75 0.75 0.81 0.70 0.57 0.57 0.47 0.36 0.29 0.26 0.22 0.18 0.15 0.16 0.20 0.24 0.24 0.23 0.29 0.31 0.37
0.34 0.33 0.32 0.31 0.32 0.35 0.33 0.31 0.26 0.24 0.33 0.55 0.75 0.78 0.82 0.76 0.66 0.56 0.52 0.47 0.43 0.37 0.29 0.24 0.21 0.20 0.19 0.19 0.21 0.23 0.26 0.31 0.33 0.40 0.46 0.47 0.52 0.64 0.78 0.92 0.96 0.88 0.76 0.77 0.74 0.65 0.55 0.51 0.43 0.32 0.28 0.26 0.22 0.18 0.18 0.20 0.22 0.26 0.29 0.34 0.37 0.43 0.37
0.41 0.34 0.32 0.33 0.34 0.37 0.36 0.37 0.31 0.36 0.57 0.73 0.98 1.24 1.11 0.96 0.82 0.69 0.60 0.53 0.48 0.43 0.37 0.33 0.30 0.27 0.25 0.25 0.25 0.26 0.27 0.32 0.36 0.41 0.43 0.49 0.56 0.65 0.79 0.95 0.92 0.95 0.90 0.76 0.77 0.74 0.62 0.57 0.45 0.29 0.24 0.23 0.24 0.26 0.23 0.25 0.27 0.34 0.39 0.40 0.40 0.37 0.36
0.39 0.39 0.40 0.40 0.46 0.41 0.40 0.39 0.36 0.46 0.68 0.82 1.13 1.43 1.51 1.18 0.95 0.80 0.64 0.52 0.46 0.42 0.38 0.35 0.38 0.35 0.32 0.28 0.25 0.27 0.28 0.29 0.31 0.33 0.38 0.45 0.50 0.54 0.70 0.93 1.19 1.10 0.90 0.95 0.93 0.88 0.70 0.50 0.44 0.44 0.31 0.21 0.23 0.30 0.36 0.34 0.38 0.42 0.44 0.44 0.42 0.37 0.30
0.47 0.47 0.52 0.53 0.55 0.53 0.51 0.49 0.46 0.54 0.83 1.08 1.30 1.66 1.81 1.29 1.08 0.88 0.72 0.58 0.49 0.42 0.37 0.34 0.35 0.37 0.34 0.28 0.26 0.28 0.29 0.29 0.32 0.33 0.35 0.41 0.47 0.50 0.50 0.61 0.68 0.70 0.66 0.74 0.87 0.96 0.86 0.54 0.49 0.39 0.35 0.47 0.39 0.41 0.49 0.49 0.49 0.50 0.52 0.52 0.50 0.39 0.35
0.55 0.56 0.59 0.61 0.70 0.67 0.66 0.56 0.54 0.74 1.05 1.20 1.41 1.69 2.11 1.52 1.29 1.02 0.78 0.60 0.51 0.48 0.43 0.38 0.36 0.35 0.33 0.29 0.29 0.29 0.29 0.32 0.34 0.35 0.39 0.40 0.39 0.37 0.35 0.34 0.34 0.41 0.56 0.62 0.57 0.62 0.64 0.53 0.43 0.38 0.32 0.30 0.38 0.55 0.59 0.54 0.53 0.50 0.54 0.58 0.54 0.54 0.51
0.49 0.51 0.52 0.52 0.56 0.62 0.60 0.48 0.53 0.79 1.06 1.22 1.48 1.93 1.75 1.60 1.24 0.98 0.78 0.62 0.53 0.48 0.43 0.38 0.39 0.42 0.40 0.35 0.32 0.30 0.49 0.42 0.41 0.48 0.51 0.46 0.37 0.32 0.28 0.27 0.26 0.40 0.50 0.42 0.52 0.55 0.52 0.49 0.45 0.55 0.54 0.56 0.59 0.54 0.53 0.59 0.66 0.70 0.80 0.89 0.92 0.77 0.52
0.39 0.41 0.47 0.48 0.49 0.51 0.46 0.43 0.46 0.65 0.95 1.10 1.38 2.04 2.04 1.68 1.21 0.91 0.73 0.58 0.50 0.46 0.43 0.38 0.38 0.40 0.42 0.37 0.33 0.32 0.57 0.72 0.76 0.74 0.71 0.64 0.52 0.40 0.35 0.30 0.21 0.42 0.84 1.28 1.60 1.80 1.50 1.32 1.31 1.38 1.56 1.53 1.48 0.99 0.95 1.04 1.16 1.04 0.79 0.83 0.87 0.65 0.42
0.41 0.41 0.43 0.46 0.47 0.46 0.48 0.43 0.40 0.54 0.76 0.95 1.27 1.66 1.61 1.47 1.28 0.95 0.75 0.65 0.56 0.51 0.48 0.40 0.42 0.41 0.41 0.40 0.33 0.48 0.71 0.96 0.97 1.15 0.94 0.78 0.69 0.58 0.48 0.33 0.21 0.18 0.23 0.65 1.17 1.47 1.54 1.68 1.45 1.37 1.38 1.60 1.57 1.44 0.93 1.10 1.31 0.93 0.60 0.66 0.64 0.60 0.37
0.41 0.39 0.40 0.41 0.42 0.44 0.48 0.46 0.41 0.45 0.69 0.95 1.33 1.50 1.46 1.34 1.19 1.03 0.82 0.74 0.67 0.56 0.46 0.39 0.36 0.42 0.48 0.44 0.43 0.76 0.99 1.43 1.18 1.19 0.93 0.66 0.64 0.66 0.57 0.37 0.25 0.21 0.23 0.25 0.32 0.42 0.51 0.63 0.83 0.78 0.78 0.67 0.77 0.90 1.04 0.94 0.94 0.77 0.71 0.73 0.60 0.51 0.46
0.33 0.34 0.36 0.38 0.45 0.47 0.46 0.46 0.43 0.47 0.60 0.96 1.28 1.34 1.22 1.12 1.08 1.05 0.94 0.85 0.73 0.72 0.63 0.50 0.44 0.39 0.43 0.70 0.97 0.95 1.32 1.46 1.96 1.31 1.16 0.88 0.84 0.75 0.53 0.29 0.23 0.26 0.28 0.29 0.28 0.28 0.26 0.32 0.38 0.50 0.63 0.64 0.58 0.53 0.60 0.80 0.66 0.69 0.71 0.68 0.60 0.48 0.44
0.33 0.38 0.42 0.41 0.41 0.45 0.46 0.46 0.43 0.38 0.52 0.90 1.04 1.02 1.29 1.05 0.98 0.85 0.81 0.80 0.78 0.67 0.58 0.53 0.46 0.42 0.38 0.47 0.73 0.96 1.29 1.49 1.80 1.70 1.18 1.14 1.00 0.69 0.47 0.42 0.47 0.42 0.34 0.37 0.31 0.28 0.27 0.28 0.32 0.43 0.53 0.63 0.57 0.53 0.53 0.65 0.48 0.51 0.46 0.58 0.65 0.60 0.51
0.41 0.40 0.33 0.31 0.35 0.41 0.42 0.40 0.38 0.42 0.47 0.71 0.93 1.02 1.22 1.08 0.95 0.78 0.84 0.87 0.68 0.53 0.46 0.40 0.40 0.41 0.41 0.45 0.66 1.04 1.57 1.63 1.75 1.87 1.29 1.16 1.38 1.39 1.18 0.64 0.54 0.46 0.44 0.39 0.37 0.34 0.32 0.31 0.33 0.35 0.40 0.53 0.56 0.51 0.62 0.54 0.47 0.39 0.34 0.31 0.35 0.43 0.49
0.40 0.36 0.33 0.32 0.37 0.38 0.37 0.36 0.35 0.45 0.40 0.48 0.75 0.91 1.07 1.14 1.11 1.06 0.81 0.78 0.69 0.53 0.42 0.37 0.38 0.37 0.43 0.57 1.06 1.39 1.64 1.72 1.90 1.59 1.48 1.67 1.52 1.41 1.15 1.01 0.93 0.76 0.65 0.53 0.44 0.39 0.42 0.36 0.31 0.34 0.33 0.33 0.43 0.43 0.37 0.42 0.41 0.39 0.36 0.36 0.30 0.27 0.28
0.39 0.32 0.33 0.36 0.37 0.36 0.34 0.33 0.38 0.39 0.33 0.36 0.51 0.79 1.05 1.06 1.10 1.02 0.79 0.72 0.61 0.52 0.47 0.43 0.41 0.46 0.63 0.97 1.02 1.16 1.41 1.62 1.44 1.37 1.55 1.68 1.48 1.06 0.99 1.04 1.10 1.04 0.91 0.72 0.56 0.49 0.40 0.34 0.25 0.25 0.25 0.26 0.24 0.34 0.40 0.40 0.42 0.37 0.36 0.34 0.29 0.24 0.23
0.31 0.33 0.33 0.34 0.34 0.37 0.36 0.36 0.37 0.32 0.32 0.33 0.37 0.50 0.69 0.79 0.87 0.72 0.66 0.62 0.52 0.50 0.49 0.47 0.57 0.70 0.80 0.91 1.02 1.07 0.99 1.02 0.93 0.95 1.14 1.02 1.02 1.06 0.99 1.05 0.96 0.86 0.81 0.87 0.78 0.58 0.40 0.26 0.21 0.20 0.20 0.20 0.24 0.28 0.40 0.46 0.48 0.47 0.39 0.37 0.34 0.31 0.23
0.34 0.32 0.31 0.32 0.31 0.36 0.38 0.41 0.35 0.30 0.32 0.36 0.38 0.41 0.49 0.59 0.55 0.55 0.50 0.55 0.49 0.40 0.37 0.40 0.55 0.44 0.46 0.51 0.58 0.67 0.78 0.99 0.74 0.65 0.63 0.75 0.86 0.84 0.94 0.98 0.87 0.69 0.65 0.64 0.53 0.47 0.42 0.32 0.24 0.25 0.26 0.22 0.24 0.32 0.39 0.46 0.52 0.58 0.53 0.47 0.48 0.45 0.41
0.36 0.37 0.37 0.38 0.36 0.39 0.39 0.41 0.32 0.31 0.34 0.42 0.49 0.50 0.51 0.54 0.50 0.52 0.44 0.43 0.50 0.46 0.39 0.37 0.40 0.41 0.43 0.45 0.48 0.58 0.68 0.62 0.52 0.55 0.72 0.62 0.57 0.77 0.87 1.11 0.78 0.60 0.57 0.48 0.41 0.39 0.33 0.31 0.36 0.31 0.38 0.40 0.36 0.36 0.34 0.35 0.39 0.48 0.49 0.45 0.43 0.41 0.39
0.54 0.58 0.60 0.61 0.53 0.53 0.46 0.39 0.33 0.33 0.43 0.60 0.63 0.63 0.57 0.54 0.52 0.59 0.59 0.43 0.43 0.43 0.40 0.42 0.44 0.47 0.46 0.57 0.61 0.62 0.62 0.59 0.56 0.49 0.44 0.45 0.50 0.58 0.65 0.75 0.75 0.70 0.68 0.53 0.52 0.54 0.44 0.46 0.46 0.49 0.46 0.41 0.37 0.30 0.27 0.29 0.37 0.40 0.48 0.53 0.51 0.61 0.55
0.96 0.87 0.87 0.73 0.70 0.77 0.67 0.54 0.53 0.50 0.57 0.67 0.70 0.72 0.69 0.69 0.65 0.60 0.57 0.45 0.43 0.47 0.47 0.44 0.45 0.46 0.46 0.44 0.45 0.47 0.48 0.46 0.42 0.39 0.39 0.47 0.50 0.47 0.48 0.50 0.64 0.71 0.61 0.48 0.52 0.60 0.58 0.59 0.57 0.50 0.42 0.43 0.43 0.34 0.28 0.29 0.37 0.41 0.42 0.52 0.61 0.66 0.54
1.21 1.16 1.08 0.94 0.72 0.74 0.85 0.78 0.65 0.60 0.82 0.90 0.94 1.07 0.88 0.81 0.89 0.78 0.63 0.52 0.47 0.45 0.45 0.42 0.39 0.38 0.37 0.36 0.34 0.35 0.35 0.34 0.34 0.34 0.34 0.38 0.42 0.41 0.43 0.44 0.49 0.53 0.49 0.45 0.54 0.51 0.55 0.52 0.50 0.44 0.43 0.43 0.43 0.39 0.32 0.31 0.38 0.45 0.47 0.56 0.68 0.67 0.58
1.15 1.21 0.99 0.92 0.98 0.84 0.61 0.57 0.52 0.53 0.80 0.93 1.15 1.17 1.03 1.09 0.99 0.92 0.81 0.64 0.57 0.51 0.43 0.40 0.35 0.35 0.32 0.30 0.29 0.30 0.30 0.30 0.31 0.30 0.30 0.32 0.34 0.35 0.38 0.41 0.43 0.48 0.47 0.47 0.50 0.54 0.58 0.53 0.50 0.45 0.38 0.37 0.34 0.34 0.38 0.43 0.48 0.45 0.52 0.56 0.55 0.55 0.49
0.92 1.02 1.12 0.93 0.98 1.09 0.87 0.71 0.66 0.64 0.93 1.09 1.29 1.28 1.08 1.05 1.09 1.01 0.86 0.68 0.67 0.58 0.46 0.38 0.33 0.33 0.32 0.29 0.28 0.27 0.26 0.29 0.32 0.32 0.33 0.31 0.28 0.26 0.26 0.30 0.37 0.43 0.45 0.47 0.49 0.49 0.53 0.57 0.56 0.52 0.44 0.37 0.33 0.32 0.34 0.41 0.52 0.58 0.69 0.64 0.56 0.49 0.43
0.58 0.66 0.80 0.85 1.01 1.12 1.07 0.83 0.78 0.79 0.98 1.08 1.18 1.11 0.89 0.87 0.85 0.72 0.67 0.58 0.48 0.43 0.41 0.37 0.35 0.34 0.33 0.31 0.29 0.29 0.29 0.32 0.34 0.29 0.28 0.28 0.28 0.26 0.24 0.24 0.25 0.31 0.38 0.42 0.45 0.47 0.49 0.59 0.52 0.56 0.53 0.50 0.42 0.39 0.38 0.34 0.36 0.39 0.42 0.50 0.57 0.52 0.45
0.43 0.41 0.44 0.46 0.60 0.73 0.77 0.68 0.66 0.66 0.67 0.76 0.86 0.84 0.85 0.86 0.74 0.65 0.65 0.48 0.42 0.39 0.38 0.35 0.33 0.33 0.34 0.34 0.33 0.33 0.32 0.33 0.35 0.29 0.26 0.23 0.21 0.22 0.22 0.20 0.22 0.26 0.31 0.34 0.37 0.41 0.40 0.43 0.46 0.53 0.55 0.58 0.51 0.44 0.38 0.38 0.35 0.34 0.41 0.48 0.45 0.41 0.40
0.34 0.31 0.35 0.44 0.46 0.58 0.63 0.53 0.50 0.59 0.69 0.78 0.79 0.78 0.90 0.73 0.65 0.67 0.54 0.39 0.32 0.33 0.33 0.33 0.31 0.30 0.28 0.28 0.29 0.31 0.32 0.32 0.32 0.28 0.27 0.25 0.22 0.20 0.20 0.23 0.22 0.22 0.23 0.25 0.29 0.32 0.35 0.37 0.42 0.46 0.47 0.48 0.48 0.47 0.47 0.42 0.39 0.39 0.37 0.38 0.41 0.37 0.34
0.37 0.33 0.32 0.40 0.39 0.43 0.56 0.57 0.51 0.54 0.69 0.87 0.86 0.84 0.74 0.66 0.55 0.44 0.40 0.35 0.33 0.32 0.33 0.32 0.33 0.33 0.32 0.34 0.35 0.36 0.34 0.32 0.32 0.32 0.31 0.29 0.27 0.24 0.23 0.24 0.24 0.23 0.22 0.21 0.22 0.25 0.28 0.32 0.37 0.41 0.46 0.46 0.43 0.40 0.38 0.35 0.33 0.33 0.34 0.34 0.34 0.38 0.36